Time,TemperatureF,DewpointF,PressureIn,WindDirection,WindDirectionDegrees,WindSpeedMPH,WindSpeedGustMPH,Humidity,HourlyPrecipIn,Conditions,Clouds,dailyrainin,SoftwareType,DateUTC
2013-04-26 00:01:00,40.2,33.6,30.32,WNW,290,0.0,0.0,77,0.00,,---,0.00,VWS V14.00,2013-04-26 04:01:00,
2013-04-26 00:02:00,40.2,33.6,30.32,WNW,290,0.0,0.0,77,0.00,,---,0.00,VWS V14.00,2013-04-26 04:02:00,
2013-04-26 00:03:00,40.2,33.6,30.32,WNW,290,0.0,0.0,77,0.00,,---,0.00,VWS V14.00,2013-04-26 04:03:00,
2013-04-26 00:07:00,40.3,33.7,30.32,WNW,290,0.0,0.0,77,0.00,,---,0.00,VWS V14.00,2013-04-26 04:07:00,
2013-04-26 00:08:00,40.2,33.6,30.32,WNW,290,0.0,0.0,77,0.00,,---,0.00,VWS V14.00,2013-04-26 04:08:00,
2013-04-26 00:09:00,40.2,33.6,30.32,WNW,290,0.0,0.0,77,0.00,,---,0.00,VWS V14.00,2013-04-26 04:09:00,
2013-04-26 00:10:00,40.2,33.6,30.32,WNW,290,0.0,0.0,77,0.00,,---,0.00,VWS V14.00,2013-04-26 04:10:00,
2013-04-26 00:12:00,40.1,33.5,30.32,WNW,290,0.0,0.0,77,0.00,,---,0.00,VWS V14.00,2013-04-26 04:12:00,
2013-04-26 00:13:00,40.1,33.5,30.32,WNW,290,0.0,0.0,77,0.00,,---,0.00,VWS V14.00,2013-04-26 04:13:00,
2013-04-26 00:15:00,39.9,33.6,30.32,WNW,290,0.0,0.0,78,0.00,,---,0.00,VWS V14.00,2013-04-26 04:15:00,
2013-04-26 00:16:00,39.9,33.6,30.32,WNW,290,0.0,0.0,78,0.00,,---,0.00,VWS V14.00,2013-04-26 04:16:00,
2013-04-26 00:18:00,39.8,33.5,30.32,WNW,290,0.0,0.0,78,0.00,,---,0.00,VWS V14.00,2013-04-26 04:18:00,
2013-04-26 00:19:00,39.8,33.5,30.32,WNW,290,0.0,0.0,78,0.00,,---,0.00,VWS V14.00,2013-04-26 04:19:00,
2013-04-26 00:21:00,39.6,33.3,30.32,WNW,290,0.0,0.0,78,0.00,,---,0.00,VWS V14.00,2013-04-26 04:21:00,
2013-04-26 00:22:00,39.6,33.3,30.32,WNW,290,0.0,0.0,78,0.00,,---,0.00,VWS V14.00,2013-04-26 04:22:00,
2013-04-26 00:23:00,39.5,33.2,30.32,WNW,290,0.0,0.0,78,0.00,,---,0.00,VWS V14.00,2013-04-26 04:23:00,
2013-04-26 00:24:00,39.5,33.2,30.32,WNW,290,0.0,0.0,78,0.00,,---,0.00,VWS V14.00,2013-04-26 04:24:00,
2013-04-26 00:27:00,39.5,33.5,30.32,WNW,290,0.0,0.0,79,0.00,,---,0.00,VWS V14.00,2013-04-26 04:27:00,
2013-04-26 00:28:00,39.4,33.4,30.32,WNW,290,0.0,0.0,79,0.00,,---,0.00,VWS V14.00,2013-04-26 04:28:00,
2013-04-26 00:31:00,39.5,33.5,30.32,WNW,290,0.0,0.0,79,0.00,,---,0.00,VWS V14.00,2013-04-26 04:31:00,
2013-04-26 00:32:00,39.5,33.5,30.32,WNW,290,0.0,0.0,79,0.00,,---,0.00,VWS V14.00,2013-04-26 04:32:00,
2013-04-26 00:33:00,39.6,33.6,30.32,WNW,290,0.0,0.0,79,0.00,,---,0.00,VWS V14.00,2013-04-26 04:33:00,
2013-04-26 00:34:00,39.6,33.6,30.32,WNW,290,0.0,0.0,79,0.00,,---,0.00,VWS V14.00,2013-04-26 04:34:00,
2013-04-26 00:35:00,39.6,33.6,30.32,WNW,290,0.0,0.0,79,0.00,,---,0.00,VWS V14.00,2013-04-26 04:35:00,
2013-04-26 00:36:00,39.6,33.6,30.32,WNW,290,0.0,0.0,79,0.00,,---,0.00,VWS V14.00,2013-04-26 04:36:00,
2013-04-26 00:38:00,39.6,33.6,30.32,WNW,290,0.0,0.0,79,0.00,,---,0.00,VWS V14.00,2013-04-26 04:38:00,
2013-04-26 00:39:00,39.5,33.5,30.32,WNW,290,0.0,0.0,79,0.00,,---,0.00,VWS V14.00,2013-04-26 04:39:00,
2013-04-26 00:40:00,39.5,33.5,30.32,WNW,288,0.0,1.0,79,0.00,,---,0.00,VWS V14.00,2013-04-26 04:40:00,
2013-04-26 00:41:00,39.5,33.5,30.32,WNW,287,0.0,1.0,79,0.00,,---,0.00,VWS V14.00,2013-04-26 04:41:00,
2013-04-26 00:43:00,39.5,33.5,30.33,WNW,288,0.0,1.0,79,0.00,,---,0.00,VWS V14.00,2013-04-26 04:43:00,
2013-04-26 00:44:00,39.4,33.4,30.33,WNW,288,0.0,1.0,79,0.00,,---,0.00,VWS V14.00,2013-04-26 04:44:00,
2013-04-26 00:46:00,39.5,33.5,30.32,West,271,0.0,1.0,79,0.00,,---,0.00,VWS V14.00,2013-04-26 04:46:00,
2013-04-26 00:49:00,39.6,34.0,30.33,West,271,0.0,1.0,80,0.00,,---,0.00,VWS V14.00,2013-04-26 04:49:00,
2013-04-26 00:51:00,39.6,34.0,30.33,West,271,0.0,1.0,80,0.00,,---,0.00,VWS V14.00,2013-04-26 04:51:00,
2013-04-26 00:52:00,39.6,34.0,30.33,West,271,0.0,1.0,80,0.00,,---,0.00,VWS V14.00,2013-04-26 04:52:00,
2013-04-26 00:55:00,39.6,34.0,30.33,West,271,0.0,1.0,80,0.00,,---,0.00,VWS V14.00,2013-04-26 04:55:00,
2013-04-26 00:57:00,39.7,34.0,30.33,West,271,0.0,1.0,80,0.00,,---,0.00,VWS V14.00,2013-04-26 04:57:00,
2013-04-26 00:58:00,39.6,34.0,30.33,West,271,0.0,1.0,80,0.00,,---,0.00,VWS V14.00,2013-04-26 04:58:00,
2013-04-26 01:02:00,39.6,34.0,30.33,West,271,0.0,0.0,80,0.00,,---,0.00,VWS V14.00,2013-04-26 05:02:00,
2013-04-26 01:03:00,39.6,34.0,30.33,West,271,0.0,0.0,80,0.00,,---,0.00,VWS V14.00,2013-04-26 05:03:00,
2013-04-26 01:04:00,39.5,33.8,30.33,West,271,0.0,0.0,80,0.00,,---,0.00,VWS V14.00,2013-04-26 05:04:00,
2013-04-26 01:07:00,39.5,33.8,30.33,West,271,0.0,0.0,80,0.00,,---,0.00,VWS V14.00,2013-04-26 05:07:00,
2013-04-26 01:08:00,39.4,33.8,30.33,West,271,0.0,0.0,80,0.00,,---,0.00,VWS V14.00,2013-04-26 05:08:00,
2013-04-26 01:09:00,39.3,33.7,30.33,West,271,0.0,0.0,80,0.00,,---,0.00,VWS V14.00,2013-04-26 05:09:00,
2013-04-26 01:10:00,39.3,33.7,30.33,West,271,0.0,0.0,80,0.00,,---,0.00,VWS V14.00,2013-04-26 05:10:00,
2013-04-26 01:13:00,39.1,33.5,30.33,West,271,0.0,0.0,80,0.00,,---,0.00,VWS V14.00,2013-04-26 05:13:00,
2013-04-26 01:14:00,39.1,33.5,30.33,West,271,0.0,0.0,80,0.00,,---,0.00,VWS V14.00,2013-04-26 05:14:00,
2013-04-26 01:16:00,39.0,33.4,30.33,West,271,0.0,0.0,80,0.00,,---,0.00,VWS V14.00,2013-04-26 05:16:00,
2013-04-26 01:18:00,38.9,33.3,30.33,West,271,0.0,0.0,80,0.00,,---,0.00,VWS V14.00,2013-04-26 05:18:00,
2013-04-26 01:20:00,38.8,33.2,30.33,West,271,0.0,0.0,80,0.00,,---,0.00,VWS V14.00,2013-04-26 05:20:00,
2013-04-26 01:21:00,38.8,33.2,30.33,West,271,0.0,0.0,80,0.00,,---,0.00,VWS V14.00,2013-04-26 05:21:00,
2013-04-26 01:22:00,38.7,33.1,30.33,West,271,0.0,0.0,80,0.00,,---,0.00,VWS V14.00,2013-04-26 05:22:00,
2013-04-26 01:23:00,38.7,33.1,30.33,West,271,0.0,0.0,80,0.00,,---,0.00,VWS V14.00,2013-04-26 05:23:00,
2013-04-26 01:25:00,38.7,33.1,30.34,West,271,0.0,0.0,80,0.00,,---,0.00,VWS V14.00,2013-04-26 05:25:00,
2013-04-26 01:26:00,38.7,33.4,30.34,West,271,0.0,0.0,81,0.00,,---,0.00,VWS V14.00,2013-04-26 05:26:00,
2013-04-26 01:28:00,38.6,33.3,30.34,West,271,0.0,0.0,81,0.00,,---,0.00,VWS V14.00,2013-04-26 05:28:00,
2013-04-26 01:29:00,38.6,33.3,30.34,West,271,0.0,0.0,81,0.00,,---,0.00,VWS V14.00,2013-04-26 05:29:00,
2013-04-26 01:30:00,38.5,33.2,30.33,West,271,0.0,0.0,81,0.00,,---,0.00,VWS V14.00,2013-04-26 05:30:00,
2013-04-26 01:31:00,38.4,33.1,30.34,West,271,0.0,0.0,81,0.00,,---,0.00,VWS V14.00,2013-04-26 05:31:00,
2013-04-26 01:33:00,38.4,33.1,30.34,West,271,0.0,0.0,81,0.00,,---,0.00,VWS V14.00,2013-04-26 05:33:00,
2013-04-26 01:34:00,38.3,33.0,30.33,West,271,0.0,0.0,81,0.00,,---,0.00,VWS V14.00,2013-04-26 05:34:00,
2013-04-26 01:35:00,38.3,33.0,30.34,West,271,0.0,0.0,81,0.00,,---,0.00,VWS V14.00,2013-04-26 05:35:00,
2013-04-26 01:37:00,38.3,33.3,30.34,West,271,0.0,0.0,82,0.00,,---,0.00,VWS V14.00,2013-04-26 05:37:00,
2013-04-26 01:39:00,38.2,33.2,30.34,West,271,0.0,0.0,82,0.00,,---,0.00,VWS V14.00,2013-04-26 05:39:00,
2013-04-26 01:40:00,38.2,33.2,30.34,West,271,0.0,0.0,82,0.00,,---,0.00,VWS V14.00,2013-04-26 05:40:00,
2013-04-26 01:41:00,38.2,33.2,30.34,West,271,2.0,2.0,82,0.00,,---,0.00,VWS V14.00,2013-04-26 05:41:00,
2013-04-26 01:43:00,38.0,33.0,30.34,West,271,0.0,2.0,82,0.00,,---,0.00,VWS V14.00,2013-04-26 05:43:00,
2013-04-26 01:44:00,37.9,32.9,30.34,West,271,0.0,2.0,82,0.00,,---,0.00,VWS V14.00,2013-04-26 05:44:00,
2013-04-26 01:45:00,37.9,32.9,30.34,West,271,0.0,2.0,82,0.00,,---,0.00,VWS V14.00,2013-04-26 05:45:00,
2013-04-26 01:46:00,37.8,32.8,30.34,West,271,0.0,2.0,82,0.00,,---,0.00,VWS V14.00,2013-04-26 05:46:00,
2013-04-26 01:49:00,37.7,33.0,30.34,West,271,0.0,2.0,83,0.00,,---,0.00,VWS V14.00,2013-04-26 05:49:00,
2013-04-26 01:50:00,37.7,33.0,30.34,West,271,0.0,2.0,83,0.00,,---,0.00,VWS V14.00,2013-04-26 05:50:00,
2013-04-26 01:51:00,37.7,32.7,30.34,West,271,0.0,2.0,82,0.00,,---,0.00,VWS V14.00,2013-04-26 05:51:00,
2013-04-26 01:53:00,37.7,33.0,30.34,West,271,0.0,2.0,83,0.00,,---,0.00,VWS V14.00,2013-04-26 05:53:00,
2013-04-26 01:54:00,37.8,33.1,30.33,West,271,0.0,2.0,83,0.00,,---,0.00,VWS V14.00,2013-04-26 05:54:00,
2013-04-26 01:57:00,37.9,33.2,30.33,West,271,0.0,2.0,83,0.00,,---,0.00,VWS V14.00,2013-04-26 05:57:00,
2013-04-26 01:58:00,37.9,33.2,30.33,West,271,0.0,2.0,83,0.00,,---,0.00,VWS V14.00,2013-04-26 05:58:00,
2013-04-26 02:01:00,37.9,33.5,30.33,West,271,0.0,0.0,84,0.00,,---,0.00,VWS V14.00,2013-04-26 06:01:00,
2013-04-26 02:02:00,37.9,33.5,30.33,West,271,0.0,0.0,84,0.00,,---,0.00,VWS V14.00,2013-04-26 06:02:00,
2013-04-26 02:03:00,37.9,33.5,30.33,West,271,0.0,0.0,84,0.00,,---,0.00,VWS V14.00,2013-04-26 06:03:00,
2013-04-26 02:04:00,38.0,33.6,30.33,West,271,0.0,0.0,84,0.00,,---,0.00,VWS V14.00,2013-04-26 06:04:00,
2013-04-26 02:07:00,37.9,33.5,30.33,West,271,0.0,0.0,84,0.00,,---,0.00,VWS V14.00,2013-04-26 06:07:00,
2013-04-26 02:08:00,37.8,33.4,30.33,West,271,0.0,0.0,84,0.00,,---,0.00,VWS V14.00,2013-04-26 06:08:00,
2013-04-26 02:09:00,37.8,33.4,30.33,West,271,0.0,0.0,84,0.00,,---,0.00,VWS V14.00,2013-04-26 06:09:00,
2013-04-26 02:10:00,37.8,33.4,30.33,West,271,0.0,0.0,84,0.00,,---,0.00,VWS V14.00,2013-04-26 06:10:00,
2013-04-26 02:11:00,37.7,33.0,30.33,West,271,0.0,0.0,83,0.00,,---,0.00,VWS V14.00,2013-04-26 06:11:00,
2013-04-26 02:12:00,37.6,32.9,30.33,West,271,0.0,0.0,83,0.00,,---,0.00,VWS V14.00,2013-04-26 06:12:00,
2013-04-26 02:15:00,37.5,32.8,30.33,West,271,0.0,0.0,83,0.00,,---,0.00,VWS V14.00,2013-04-26 06:15:00,
2013-04-26 02:16:00,37.4,32.7,30.33,West,271,0.0,0.0,83,0.00,,---,0.00,VWS V14.00,2013-04-26 06:16:00,
2013-04-26 02:17:00,37.4,33.0,30.34,West,271,0.0,0.0,84,0.00,,---,0.00,VWS V14.00,2013-04-26 06:17:00,
2013-04-26 02:18:00,37.3,32.9,30.34,West,271,0.0,0.0,84,0.00,,---,0.00,VWS V14.00,2013-04-26 06:18:00,
2013-04-26 02:20:00,37.2,32.8,30.34,West,271,0.0,0.0,84,0.00,,---,0.00,VWS V14.00,2013-04-26 06:20:00,
2013-04-26 02:22:00,37.0,32.3,30.33,West,271,0.0,0.0,83,0.00,,---,0.00,VWS V14.00,2013-04-26 06:22:00,
2013-04-26 02:23:00,37.0,32.3,30.33,West,271,0.0,0.0,83,0.00,,---,0.00,VWS V14.00,2013-04-26 06:23:00,
2013-04-26 02:26:00,36.8,32.4,30.33,West,271,0.0,0.0,84,0.00,,---,0.00,VWS V14.00,2013-04-26 06:26:00,
2013-04-26 02:28:00,36.7,32.3,30.33,West,271,0.0,0.0,84,0.00,,---,0.00,VWS V14.00,2013-04-26 06:28:00,
2013-04-26 02:29:00,36.7,32.3,30.33,West,271,0.0,0.0,84,0.00,,---,0.00,VWS V14.00,2013-04-26 06:29:00,
2013-04-26 02:31:00,36.7,32.3,30.33,West,271,0.0,0.0,84,0.00,,---,0.00,VWS V14.00,2013-04-26 06:31:00,
2013-04-26 02:33:00,36.7,32.3,30.33,West,271,0.0,0.0,84,0.00,,---,0.00,VWS V14.00,2013-04-26 06:33:00,
2013-04-26 02:36:00,36.6,32.2,30.33,West,271,0.0,0.0,84,0.00,,---,0.00,VWS V14.00,2013-04-26 06:36:00,
2013-04-26 02:37:00,36.6,32.2,30.33,West,271,0.0,0.0,84,0.00,,---,0.00,VWS V14.00,2013-04-26 06:37:00,
2013-04-26 02:39:00,36.6,32.2,30.33,West,271,0.0,0.0,84,0.00,,---,0.00,VWS V14.00,2013-04-26 06:39:00,
2013-04-26 02:42:00,36.5,32.1,30.33,West,271,0.0,0.0,84,0.00,,---,0.00,VWS V14.00,2013-04-26 06:42:00,
2013-04-26 02:43:00,36.5,32.1,30.34,West,271,0.0,0.0,84,0.00,,---,0.00,VWS V14.00,2013-04-26 06:43:00,
2013-04-26 02:45:00,36.5,32.4,30.34,West,271,0.0,0.0,85,0.00,,---,0.00,VWS V14.00,2013-04-26 06:45:00,
2013-04-26 02:47:00,36.6,32.5,30.33,West,271,0.0,0.0,85,0.00,,---,0.00,VWS V14.00,2013-04-26 06:47:00,
2013-04-26 02:48:00,36.6,32.5,30.33,West,271,0.0,0.0,85,0.00,,---,0.00,VWS V14.00,2013-04-26 06:48:00,
2013-04-26 02:50:00,36.7,32.6,30.33,West,271,0.0,0.0,85,0.00,,---,0.00,VWS V14.00,2013-04-26 06:50:00,
2013-04-26 02:52:00,36.6,32.5,30.33,West,271,0.0,0.0,85,0.00,,---,0.00,VWS V14.00,2013-04-26 06:52:00,
2013-04-26 02:53:00,36.7,32.6,30.33,WSW,247,0.0,0.0,85,0.00,,---,0.00,VWS V14.00,2013-04-26 06:53:00,
2013-04-26 02:55:00,36.9,32.8,30.33,WSW,239,0.0,0.0,85,0.00,,---,0.00,VWS V14.00,2013-04-26 06:55:00,
2013-04-26 02:57:00,36.9,32.8,30.33,WSW,238,0.0,0.0,85,0.00,,---,0.00,VWS V14.00,2013-04-26 06:57:00,
2013-04-26 02:58:00,37.1,33.0,30.33,SW,230,0.0,0.0,85,0.00,,---,0.00,VWS V14.00,2013-04-26 06:58:00,
2013-04-26 03:02:00,37.2,33.1,30.33,SW,227,0.0,0.0,85,0.00,,---,0.00,VWS V14.00,2013-04-26 07:02:00,
2013-04-26 03:03:00,37.2,33.1,30.33,SW,227,0.0,0.0,85,0.00,,---,0.00,VWS V14.00,2013-04-26 07:03:00,
2013-04-26 03:04:00,37.1,33.0,30.33,SW,227,0.0,0.0,85,0.00,,---,0.00,VWS V14.00,2013-04-26 07:04:00,
2013-04-26 03:07:00,37.0,32.9,30.33,SW,226,0.0,0.0,85,0.00,,---,0.00,VWS V14.00,2013-04-26 07:07:00,
2013-04-26 03:08:00,37.0,32.9,30.33,SW,226,0.0,0.0,85,0.00,,---,0.00,VWS V14.00,2013-04-26 07:08:00,
2013-04-26 03:09:00,37.0,32.9,30.33,SW,226,0.0,0.0,85,0.00,,---,0.00,VWS V14.00,2013-04-26 07:09:00,
2013-04-26 03:12:00,37.0,32.9,30.33,SW,226,0.0,0.0,85,0.00,,---,0.00,VWS V14.00,2013-04-26 07:12:00,
2013-04-26 03:14:00,37.0,32.9,30.33,SW,226,0.0,0.0,85,0.00,,---,0.00,VWS V14.00,2013-04-26 07:14:00,
2013-04-26 03:15:00,36.9,32.8,30.33,SW,227,1.0,2.0,85,0.00,,---,0.00,VWS V14.00,2013-04-26 07:15:00,
2013-04-26 03:16:00,36.9,32.8,30.33,SW,227,0.0,2.0,85,0.00,,---,0.00,VWS V14.00,2013-04-26 07:16:00,
2013-04-26 03:17:00,37.0,32.9,30.33,SW,225,0.0,2.0,85,0.00,,---,0.00,VWS V14.00,2013-04-26 07:17:00,
2013-04-26 03:20:00,37.1,33.0,30.33,SW,221,0.0,2.0,85,0.00,,---,0.00,VWS V14.00,2013-04-26 07:20:00,
2013-04-26 03:21:00,37.1,33.3,30.33,SW,221,0.0,2.0,86,0.00,,---,0.00,VWS V14.00,2013-04-26 07:21:00,
2013-04-26 03:23:00,37.1,33.0,30.33,SW,221,0.0,2.0,85,0.00,,---,0.00,VWS V14.00,2013-04-26 07:23:00,
2013-04-26 03:25:00,37.0,32.9,30.33,SW,221,0.0,2.0,85,0.00,,---,0.00,VWS V14.00,2013-04-26 07:25:00,
2013-04-26 03:26:00,37.0,32.9,30.33,SW,221,0.0,2.0,85,0.00,,---,0.00,VWS V14.00,2013-04-26 07:26:00,
2013-04-26 03:28:00,36.8,32.7,30.33,SW,221,0.0,2.0,85,0.00,,---,0.00,VWS V14.00,2013-04-26 07:28:00,
2013-04-26 03:30:00,36.6,32.5,30.33,SW,221,0.0,0.0,85,0.00,,---,0.00,VWS V14.00,2013-04-26 07:30:00,
2013-04-26 03:31:00,36.5,32.4,30.33,SW,221,0.0,0.0,85,0.00,,---,0.00,VWS V14.00,2013-04-26 07:31:00,
2013-04-26 03:32:00,36.5,32.4,30.33,SW,221,0.0,0.0,85,0.00,,---,0.00,VWS V14.00,2013-04-26 07:32:00,
2013-04-26 03:33:00,36.4,32.3,30.33,SW,221,0.0,0.0,85,0.00,,---,0.00,VWS V14.00,2013-04-26 07:33:00,
2013-04-26 03:35:00,36.3,32.2,30.33,SW,221,0.0,0.0,85,0.00,,---,0.00,VWS V14.00,2013-04-26 07:35:00,
2013-04-26 03:37:00,36.3,32.2,30.33,SW,221,0.0,0.0,85,0.00,,---,0.00,VWS V14.00,2013-04-26 07:37:00,
2013-04-26 03:38:00,36.3,32.5,30.33,SW,221,0.0,0.0,86,0.00,,---,0.00,VWS V14.00,2013-04-26 07:38:00,
2013-04-26 03:40:00,36.4,32.6,30.33,SW,221,0.0,0.0,86,0.00,,---,0.00,VWS V14.00,2013-04-26 07:40:00,
2013-04-26 03:43:00,36.4,32.6,30.33,SW,221,0.0,0.0,86,0.00,,---,0.00,VWS V14.00,2013-04-26 07:43:00,
2013-04-26 03:44:00,36.4,32.6,30.33,SW,221,0.0,0.0,86,0.00,,---,0.00,VWS V14.00,2013-04-26 07:44:00,
2013-04-26 03:45:00,36.3,32.5,30.33,SW,221,0.0,0.0,86,0.00,,---,0.00,VWS V14.00,2013-04-26 07:45:00,
2013-04-26 03:48:00,36.2,32.4,30.33,SW,221,0.0,0.0,86,0.00,,---,0.00,VWS V14.00,2013-04-26 07:48:00,
2013-04-26 03:49:00,36.1,32.3,30.33,SW,221,0.0,0.0,86,0.00,,---,0.00,VWS V14.00,2013-04-26 07:49:00,
2013-04-26 03:50:00,36.0,32.2,30.33,SW,221,0.0,0.0,86,0.00,,---,0.00,VWS V14.00,2013-04-26 07:50:00,
2013-04-26 03:53:00,35.9,32.1,30.33,SW,221,0.0,0.0,86,0.00,,---,0.00,VWS V14.00,2013-04-26 07:53:00,
2013-04-26 03:55:00,35.8,32.0,30.33,SW,221,0.0,0.0,86,0.00,,---,0.00,VWS V14.00,2013-04-26 07:55:00,
2013-04-26 03:56:00,35.7,31.9,30.33,SW,221,0.0,0.0,86,0.00,,---,0.00,VWS V14.00,2013-04-26 07:56:00,
2013-04-26 03:58:00,35.7,31.9,30.34,SW,221,0.0,0.0,86,0.00,,---,0.00,VWS V14.00,2013-04-26 07:58:00,
2013-04-26 04:00:00,35.6,31.8,30.34,SW,221,0.0,0.0,86,0.00,,---,0.00,VWS V14.00,2013-04-26 08:00:00,
2013-04-26 04:01:00,35.6,31.8,30.34,SW,221,0.0,0.0,86,0.00,,---,0.00,VWS V14.00,2013-04-26 08:01:00,
2013-04-26 04:02:00,35.6,31.8,30.34,SW,221,0.0,0.0,86,0.00,,---,0.00,VWS V14.00,2013-04-26 08:02:00,
2013-04-26 04:03:00,35.6,32.1,30.34,SW,221,0.0,0.0,87,0.00,,---,0.00,VWS V14.00,2013-04-26 08:03:00,
2013-04-26 04:05:00,35.5,32.0,30.34,SW,221,0.0,0.0,87,0.00,,---,0.00,VWS V14.00,2013-04-26 08:05:00,
2013-04-26 04:06:00,35.5,32.0,30.34,SW,221,0.0,0.0,87,0.00,,---,0.00,VWS V14.00,2013-04-26 08:06:00,
2013-04-26 04:07:00,35.5,32.0,30.34,SW,221,0.0,0.0,87,0.00,,---,0.00,VWS V14.00,2013-04-26 08:07:00,
2013-04-26 04:08:00,35.5,32.0,30.34,SW,221,0.0,0.0,87,0.00,,---,0.00,VWS V14.00,2013-04-26 08:08:00,
2013-04-26 04:11:00,35.4,31.9,30.34,SW,221,0.0,0.0,87,0.00,,---,0.00,VWS V14.00,2013-04-26 08:11:00,
2013-04-26 04:13:00,35.3,31.8,30.34,SW,221,0.0,0.0,87,0.00,,---,0.00,VWS V14.00,2013-04-26 08:13:00,
2013-04-26 04:14:00,35.3,31.8,30.34,SW,221,0.0,0.0,87,0.00,,---,0.00,VWS V14.00,2013-04-26 08:14:00,
2013-04-26 04:16:00,35.3,31.8,30.34,SW,221,0.0,0.0,87,0.00,,---,0.00,VWS V14.00,2013-04-26 08:16:00,
2013-04-26 04:18:00,35.3,31.8,30.34,SW,221,0.0,0.0,87,0.00,,---,0.00,VWS V14.00,2013-04-26 08:18:00,
2013-04-26 04:19:00,35.2,31.7,30.34,SW,221,0.0,0.0,87,0.00,,---,0.00,VWS V14.00,2013-04-26 08:19:00,
2013-04-26 04:20:00,35.2,31.7,30.34,SW,221,0.0,0.0,87,0.00,,---,0.00,VWS V14.00,2013-04-26 08:20:00,
2013-04-26 04:23:00,35.2,31.7,30.34,SW,221,0.0,0.0,87,0.00,,---,0.00,VWS V14.00,2013-04-26 08:23:00,
2013-04-26 04:24:00,35.3,31.8,30.34,SW,221,0.0,0.0,87,0.00,,---,0.00,VWS V14.00,2013-04-26 08:24:00,
2013-04-26 04:25:00,35.3,31.8,30.34,SW,221,0.0,0.0,87,0.00,,---,0.00,VWS V14.00,2013-04-26 08:25:00,
2013-04-26 04:26:00,35.3,31.8,30.34,SW,221,0.0,0.0,87,0.00,,---,0.00,VWS V14.00,2013-04-26 08:26:00,
2013-04-26 04:28:00,35.2,31.7,30.34,SW,221,0.0,0.0,87,0.00,,---,0.00,VWS V14.00,2013-04-26 08:28:00,
2013-04-26 04:30:00,35.2,31.7,30.34,SW,221,0.0,0.0,87,0.00,,---,0.00,VWS V14.00,2013-04-26 08:30:00,
2013-04-26 04:33:00,35.2,31.7,30.34,SW,221,0.0,0.0,87,0.00,,---,0.00,VWS V14.00,2013-04-26 08:33:00,
2013-04-26 04:34:00,35.2,32.0,30.34,SW,221,0.0,0.0,88,0.00,,---,0.00,VWS V14.00,2013-04-26 08:34:00,
2013-04-26 04:35:00,35.3,32.1,30.34,SW,221,0.0,0.0,88,0.00,,---,0.00,VWS V14.00,2013-04-26 08:35:00,
2013-04-26 04:36:00,35.3,32.1,30.34,SW,221,0.0,0.0,88,0.00,,---,0.00,VWS V14.00,2013-04-26 08:36:00,
2013-04-26 04:38:00,35.4,32.2,30.35,SW,221,0.0,0.0,88,0.00,,---,0.00,VWS V14.00,2013-04-26 08:38:00,
2013-04-26 04:41:00,35.6,32.4,30.34,SW,221,0.0,0.0,88,0.00,,---,0.00,VWS V14.00,2013-04-26 08:41:00,
2013-04-26 04:42:00,35.6,32.4,30.34,SW,221,0.0,0.0,88,0.00,,---,0.00,VWS V14.00,2013-04-26 08:42:00,
2013-04-26 04:43:00,35.6,32.4,30.35,SW,221,0.0,0.0,88,0.00,,---,0.00,VWS V14.00,2013-04-26 08:43:00,
2013-04-26 04:44:00,35.6,32.4,30.34,SW,221,0.0,0.0,88,0.00,,---,0.00,VWS V14.00,2013-04-26 08:44:00,
2013-04-26 04:47:00,35.5,32.3,30.34,SW,221,0.0,0.0,88,0.00,,---,0.00,VWS V14.00,2013-04-26 08:47:00,
2013-04-26 04:48:00,35.5,32.3,30.34,SW,221,0.0,0.0,88,0.00,,---,0.00,VWS V14.00,2013-04-26 08:48:00,
2013-04-26 04:50:00,35.4,32.2,30.34,SW,221,0.0,0.0,88,0.00,,---,0.00,VWS V14.00,2013-04-26 08:50:00,
2013-04-26 04:52:00,35.4,32.2,30.34,SW,221,0.0,0.0,88,0.00,,---,0.00,VWS V14.00,2013-04-26 08:52:00,
2013-04-26 04:54:00,35.4,32.2,30.34,SW,221,0.0,0.0,88,0.00,,---,0.00,VWS V14.00,2013-04-26 08:54:00,
2013-04-26 04:57:00,35.4,32.2,30.35,SW,221,0.0,0.0,88,0.00,,---,0.00,VWS V14.00,2013-04-26 08:57:00,
2013-04-26 04:58:00,35.4,32.2,30.35,SW,221,0.0,0.0,88,0.00,,---,0.00,VWS V14.00,2013-04-26 08:58:00,
2013-04-26 04:59:00,35.5,32.3,30.35,SW,221,0.0,0.0,88,0.00,,---,0.00,VWS V14.00,2013-04-26 08:59:00,
2013-04-26 05:02:00,35.5,32.3,30.34,SW,221,0.0,0.0,88,0.00,,---,0.00,VWS V14.00,2013-04-26 09:02:00,
2013-04-26 05:03:00,35.5,32.3,30.34,SW,221,0.0,0.0,88,0.00,,---,0.00,VWS V14.00,2013-04-26 09:03:00,
2013-04-26 05:04:00,35.5,32.0,30.34,SW,221,0.0,0.0,87,0.00,,---,0.00,VWS V14.00,2013-04-26 09:04:00,
2013-04-26 05:08:00,35.4,31.9,30.34,SW,221,0.0,0.0,87,0.00,,---,0.00,VWS V14.00,2013-04-26 09:08:00,
2013-04-26 05:09:00,35.4,31.9,30.34,SW,221,0.0,0.0,87,0.00,,---,0.00,VWS V14.00,2013-04-26 09:09:00,
2013-04-26 05:10:00,35.3,31.8,30.34,SW,221,0.0,0.0,87,0.00,,---,0.00,VWS V14.00,2013-04-26 09:10:00,
2013-04-26 05:11:00,35.3,31.8,30.34,SW,221,0.0,0.0,87,0.00,,---,0.00,VWS V14.00,2013-04-26 09:11:00,
2013-04-26 05:15:00,35.2,31.7,30.35,SW,221,0.0,0.0,87,0.00,,---,0.00,VWS V14.00,2013-04-26 09:15:00,
2013-04-26 05:16:00,35.2,31.7,30.35,SW,221,0.0,0.0,87,0.00,,---,0.00,VWS V14.00,2013-04-26 09:16:00,
2013-04-26 05:17:00,35.2,32.0,30.35,SW,221,0.0,0.0,88,0.00,,---,0.00,VWS V14.00,2013-04-26 09:17:00,
2013-04-26 05:21:00,35.5,32.3,30.35,SW,221,0.0,1.0,88,0.00,,---,0.00,VWS V14.00,2013-04-26 09:21:00,
2013-04-26 05:22:00,35.6,32.4,30.35,SW,221,0.0,1.0,88,0.00,,---,0.00,VWS V14.00,2013-04-26 09:22:00,
2013-04-26 05:26:00,35.9,32.7,30.35,SW,221,0.0,1.0,88,0.00,,---,0.00,VWS V14.00,2013-04-26 09:26:00,
2013-04-26 05:27:00,35.9,32.7,30.35,SW,221,0.0,1.0,88,0.00,,---,0.00,VWS V14.00,2013-04-26 09:27:00,
2013-04-26 05:29:00,35.9,32.7,30.34,SW,221,0.0,0.0,88,0.00,,---,0.00,VWS V14.00,2013-04-26 09:29:00,
2013-04-26 05:31:00,36.0,32.8,30.34,SW,221,0.0,0.0,88,0.00,,---,0.00,VWS V14.00,2013-04-26 09:31:00,
2013-04-26 05:32:00,36.0,32.8,30.34,SW,221,0.0,0.0,88,0.00,,---,0.00,VWS V14.00,2013-04-26 09:32:00,
2013-04-26 05:33:00,36.0,32.8,30.34,SW,221,0.0,0.0,88,0.00,,---,0.00,VWS V14.00,2013-04-26 09:33:00,
2013-04-26 05:35:00,36.1,32.9,30.35,SW,221,0.0,0.0,88,0.00,,---,0.00,VWS V14.00,2013-04-26 09:35:00,
2013-04-26 05:38:00,36.1,32.9,30.35,SW,221,0.0,0.0,88,0.00,,---,0.00,VWS V14.00,2013-04-26 09:38:00,
2013-04-26 05:39:00,36.1,32.9,30.35,SW,221,0.0,0.0,88,0.00,,---,0.00,VWS V14.00,2013-04-26 09:39:00,
2013-04-26 05:40:00,36.2,33.0,30.35,SW,221,0.0,0.0,88,0.00,,---,0.00,VWS V14.00,2013-04-26 09:40:00,
2013-04-26 05:41:00,36.2,33.0,30.35,SW,221,0.0,0.0,88,0.00,,---,0.00,VWS V14.00,2013-04-26 09:41:00,
2013-04-26 05:43:00,36.2,33.0,30.35,SW,221,0.0,0.0,88,0.00,,---,0.00,VWS V14.00,2013-04-26 09:43:00,
2013-04-26 05:44:00,36.2,33.0,30.35,SW,221,0.0,0.0,88,0.00,,---,0.00,VWS V14.00,2013-04-26 09:44:00,
2013-04-26 05:45:00,36.1,32.9,30.35,SW,221,0.0,0.0,88,0.00,,---,0.00,VWS V14.00,2013-04-26 09:45:00,
2013-04-26 05:46:00,36.1,32.9,30.35,SW,221,0.0,0.0,88,0.00,,---,0.00,VWS V14.00,2013-04-26 09:46:00,
2013-04-26 05:48:00,36.1,32.9,30.35,SW,221,0.0,0.0,88,0.00,,---,0.00,VWS V14.00,2013-04-26 09:48:00,
2013-04-26 05:50:00,36.1,32.9,30.35,SW,221,0.0,0.0,88,0.00,,---,0.00,VWS V14.00,2013-04-26 09:50:00,
2013-04-26 05:51:00,36.1,32.9,30.35,SW,221,0.0,0.0,88,0.00,,---,0.00,VWS V14.00,2013-04-26 09:51:00,
2013-04-26 05:53:00,36.0,32.8,30.35,SW,221,0.0,0.0,88,0.00,,---,0.00,VWS V14.00,2013-04-26 09:53:00,
2013-04-26 05:54:00,36.0,32.8,30.35,SW,220,0.0,0.0,88,0.00,,---,0.00,VWS V14.00,2013-04-26 09:54:00,
2013-04-26 05:56:00,35.9,32.7,30.35,SW,220,0.0,0.0,88,0.00,,---,0.00,VWS V14.00,2013-04-26 09:56:00,
2013-04-26 05:57:00,35.9,32.7,30.35,SW,220,0.0,0.0,88,0.00,,---,0.00,VWS V14.00,2013-04-26 09:57:00,
2013-04-26 05:58:00,35.9,32.7,30.35,SW,220,0.0,0.0,88,0.00,,---,0.00,VWS V14.00,2013-04-26 09:58:00,
2013-04-26 06:02:00,35.7,32.5,30.35,SW,220,0.0,0.0,88,0.00,,---,0.00,VWS V14.00,2013-04-26 10:02:00,
2013-04-26 06:03:00,35.6,32.1,30.35,SW,220,0.0,0.0,87,0.00,,---,0.00,VWS V14.00,2013-04-26 10:03:00,
2013-04-26 06:07:00,35.3,32.1,30.35,SW,219,0.0,0.0,88,0.00,,---,0.00,VWS V14.00,2013-04-26 10:07:00,
2013-04-26 06:08:00,35.2,32.0,30.35,SW,217,0.0,0.0,88,0.00,,---,0.00,VWS V14.00,2013-04-26 10:08:00,
2013-04-26 06:09:00,35.2,32.0,30.35,SW,215,0.0,0.0,88,0.00,,---,0.00,VWS V14.00,2013-04-26 10:09:00,
2013-04-26 06:10:00,35.2,32.0,30.35,SW,215,0.0,0.0,88,0.00,,---,0.00,VWS V14.00,2013-04-26 10:10:00,
2013-04-26 06:12:00,35.2,32.0,30.35,SW,215,0.0,0.0,88,0.00,,---,0.00,VWS V14.00,2013-04-26 10:12:00,
2013-04-26 06:14:00,35.1,31.6,30.35,SSW,194,2.0,3.0,87,0.00,,---,0.00,VWS V14.00,2013-04-26 10:14:00,
2013-04-26 06:15:00,35.1,31.6,30.35,SSW,194,1.0,3.0,87,0.00,,---,0.00,VWS V14.00,2013-04-26 10:15:00,
2013-04-26 06:19:00,35.1,31.6,30.35,SSW,194,0.0,3.0,87,0.00,,---,0.00,VWS V14.00,2013-04-26 10:19:00,
2013-04-26 06:20:00,35.1,31.6,30.35,SSW,194,0.0,3.0,87,0.00,,---,0.00,VWS V14.00,2013-04-26 10:20:00,
2013-04-26 06:22:00,35.2,32.0,30.35,SSW,194,0.0,3.0,88,0.00,,---,0.00,VWS V14.00,2013-04-26 10:22:00,
2013-04-26 06:24:00,35.2,32.0,30.35,SSW,194,0.0,3.0,88,0.00,,---,0.00,VWS V14.00,2013-04-26 10:24:00,
2013-04-26 06:26:00,35.2,32.0,30.35,SSW,194,0.0,3.0,88,0.00,,---,0.00,VWS V14.00,2013-04-26 10:26:00,
2013-04-26 06:27:00,35.3,32.1,30.35,SSW,194,0.0,3.0,88,0.00,,---,0.00,VWS V14.00,2013-04-26 10:27:00,
2013-04-26 06:28:00,35.3,32.1,30.35,SSW,194,0.0,3.0,88,0.00,,---,0.00,VWS V14.00,2013-04-26 10:28:00,
2013-04-26 06:30:00,35.3,32.1,30.35,SSW,194,0.0,0.0,88,0.00,,---,0.00,VWS V14.00,2013-04-26 10:30:00,
2013-04-26 06:31:00,35.3,32.1,30.35,SSW,194,0.0,0.0,88,0.00,,---,0.00,VWS V14.00,2013-04-26 10:31:00,
2013-04-26 06:32:00,35.3,32.1,30.35,SSW,194,0.0,0.0,88,0.00,,---,0.00,VWS V14.00,2013-04-26 10:32:00,
2013-04-26 06:33:00,35.3,32.1,30.35,SSW,194,0.0,0.0,88,0.00,,---,0.00,VWS V14.00,2013-04-26 10:33:00,
2013-04-26 06:34:00,35.3,32.1,30.35,SSW,194,0.0,0.0,88,0.00,,---,0.00,VWS V14.00,2013-04-26 10:34:00,
2013-04-26 06:35:00,35.3,32.1,30.35,SSW,194,0.0,0.0,88,0.00,,---,0.00,VWS V14.00,2013-04-26 10:35:00,
2013-04-26 06:36:00,35.3,32.1,30.35,SSW,194,0.0,0.0,88,0.00,,---,0.00,VWS V14.00,2013-04-26 10:36:00,
2013-04-26 06:38:00,35.2,32.0,30.35,SSW,194,0.0,0.0,88,0.00,,---,0.00,VWS V14.00,2013-04-26 10:38:00,
2013-04-26 06:39:00,35.2,32.0,30.35,SSW,194,0.0,0.0,88,0.00,,---,0.00,VWS V14.00,2013-04-26 10:39:00,
2013-04-26 06:40:00,35.2,32.0,30.35,SSW,194,0.0,0.0,88,0.00,,---,0.00,VWS V14.00,2013-04-26 10:40:00,
2013-04-26 06:42:00,35.1,31.6,30.36,SSW,194,0.0,0.0,87,0.00,,---,0.00,VWS V14.00,2013-04-26 10:42:00,
2013-04-26 06:44:00,35.2,32.0,30.36,SSW,193,0.0,0.0,88,0.00,,---,0.00,VWS V14.00,2013-04-26 10:44:00,
2013-04-26 06:45:00,35.3,32.1,30.36,SSW,193,0.0,0.0,88,0.00,,---,0.00,VWS V14.00,2013-04-26 10:45:00,
2013-04-26 06:46:00,35.3,32.1,30.36,SSW,193,0.0,0.0,88,0.00,,---,0.00,VWS V14.00,2013-04-26 10:46:00,
2013-04-26 06:47:00,35.4,32.2,30.36,SSW,194,0.0,0.0,88,0.00,,---,0.00,VWS V14.00,2013-04-26 10:47:00,
2013-04-26 06:49:00,35.5,32.3,30.36,SSW,194,0.0,0.0,88,0.00,,---,0.00,VWS V14.00,2013-04-26 10:49:00,
2013-04-26 06:50:00,35.5,32.3,30.36,SSW,194,0.0,0.0,88,0.00,,---,0.00,VWS V14.00,2013-04-26 10:50:00,
2013-04-26 06:51:00,35.5,32.3,30.36,SSW,194,0.0,0.0,88,0.00,,---,0.00,VWS V14.00,2013-04-26 10:51:00,
2013-04-26 06:53:00,35.6,32.4,30.36,SSW,193,0.0,3.0,88,0.00,,---,0.00,VWS V14.00,2013-04-26 10:53:00,
2013-04-26 06:54:00,35.7,32.5,30.36,SSW,193,0.0,3.0,88,0.00,,---,0.00,VWS V14.00,2013-04-26 10:54:00,
2013-04-26 06:55:00,35.7,32.5,30.36,SSW,193,3.0,3.0,88,0.00,,---,0.00,VWS V14.00,2013-04-26 10:55:00,
2013-04-26 06:56:00,35.7,32.5,30.36,SSW,194,0.0,3.0,88,0.00,,---,0.00,VWS V14.00,2013-04-26 10:56:00,
2013-04-26 06:58:00,35.7,32.5,30.36,SSW,194,0.0,3.0,88,0.00,,---,0.00,VWS V14.00,2013-04-26 10:58:00,
2013-04-26 07:00:00,35.7,32.5,30.36,SSW,194,0.0,0.0,88,0.00,,---,0.00,VWS V14.00,2013-04-26 11:00:00,
2013-04-26 07:01:00,35.7,32.5,30.36,SSW,194,0.0,0.0,88,0.00,,---,0.00,VWS V14.00,2013-04-26 11:01:00,
2013-04-26 07:03:00,35.7,32.5,30.36,SSW,194,0.0,0.0,88,0.00,,---,0.00,VWS V14.00,2013-04-26 11:03:00,
2013-04-26 07:05:00,35.7,32.5,30.36,SSW,194,0.0,0.0,88,0.00,,---,0.00,VWS V14.00,2013-04-26 11:05:00,
2013-04-26 07:06:00,35.7,32.5,30.36,SSW,194,0.0,0.0,88,0.00,,---,0.00,VWS V14.00,2013-04-26 11:06:00,
2013-04-26 07:07:00,35.8,32.6,30.36,SSW,194,0.0,0.0,88,0.00,,---,0.00,VWS V14.00,2013-04-26 11:07:00,
2013-04-26 07:09:00,35.8,32.6,30.36,SSW,194,0.0,0.0,88,0.00,,---,0.00,VWS V14.00,2013-04-26 11:09:00,
2013-04-26 07:10:00,35.8,32.6,30.36,SSW,194,0.0,0.0,88,0.00,,---,0.00,VWS V14.00,2013-04-26 11:10:00,
2013-04-26 07:12:00,35.7,32.5,30.36,SSW,194,0.0,0.0,88,0.00,,---,0.00,VWS V14.00,2013-04-26 11:12:00,
2013-04-26 07:13:00,35.8,32.6,30.36,SSW,194,0.0,0.0,88,0.00,,---,0.00,VWS V14.00,2013-04-26 11:13:00,
2013-04-26 07:14:00,35.7,32.5,30.36,SSW,194,0.0,0.0,88,0.00,,---,0.00,VWS V14.00,2013-04-26 11:14:00,
2013-04-26 07:15:00,35.7,32.5,30.36,SSW,194,0.0,0.0,88,0.00,,---,0.00,VWS V14.00,2013-04-26 11:15:00,
2013-04-26 07:16:00,35.8,32.6,30.36,SSW,194,0.0,0.0,88,0.00,,---,0.00,VWS V14.00,2013-04-26 11:16:00,
2013-04-26 07:17:00,35.8,32.6,30.36,SSW,194,0.0,0.0,88,0.00,,---,0.00,VWS V14.00,2013-04-26 11:17:00,
2013-04-26 07:19:00,35.8,32.6,30.36,SSW,194,0.0,0.0,88,0.00,,---,0.00,VWS V14.00,2013-04-26 11:19:00,
2013-04-26 07:20:00,35.8,32.6,30.36,SSW,192,1.0,2.0,88,0.00,,---,0.00,VWS V14.00,2013-04-26 11:20:00,
2013-04-26 07:22:00,35.8,32.6,30.36,SSW,192,1.0,2.0,88,0.00,,---,0.00,VWS V14.00,2013-04-26 11:22:00,
2013-04-26 07:24:00,35.8,32.6,30.37,SSW,192,0.0,2.0,88,0.00,,---,0.00,VWS V14.00,2013-04-26 11:24:00,
2013-04-26 07:26:00,35.9,32.7,30.37,South,191,0.0,2.0,88,0.00,,---,0.00,VWS V14.00,2013-04-26 11:26:00,
2013-04-26 07:27:00,36.0,32.8,30.37,South,191,0.0,2.0,88,0.00,,---,0.00,VWS V14.00,2013-04-26 11:27:00,
2013-04-26 07:28:00,36.1,32.9,30.37,South,191,0.0,2.0,88,0.00,,---,0.00,VWS V14.00,2013-04-26 11:28:00,
2013-04-26 07:30:00,36.2,33.0,30.37,South,191,0.0,0.0,88,0.00,,---,0.00,VWS V14.00,2013-04-26 11:30:00,
2013-04-26 07:31:00,36.4,33.2,30.37,SSW,192,0.0,0.0,88,0.00,,---,0.00,VWS V14.00,2013-04-26 11:31:00,
2013-04-26 07:33:00,36.5,33.3,30.36,SSW,192,0.0,0.0,88,0.00,,---,0.00,VWS V14.00,2013-04-26 11:33:00,
2013-04-26 07:34:00,36.6,33.4,30.36,SSW,192,0.0,0.0,88,0.00,,---,0.00,VWS V14.00,2013-04-26 11:34:00,
2013-04-26 07:35:00,36.7,33.5,30.36,SSW,192,0.0,0.0,88,0.00,,---,0.00,VWS V14.00,2013-04-26 11:35:00,
2013-04-26 07:37:00,36.8,33.6,30.37,SSW,192,0.0,0.0,88,0.00,,---,0.00,VWS V14.00,2013-04-26 11:37:00,
2013-04-26 07:38:00,37.0,33.8,30.37,SSW,192,0.0,0.0,88,0.00,,---,0.00,VWS V14.00,2013-04-26 11:38:00,
2013-04-26 07:39:00,37.0,33.8,30.37,SSW,192,0.0,0.0,88,0.00,,---,0.00,VWS V14.00,2013-04-26 11:39:00,
2013-04-26 07:40:00,37.1,33.9,30.37,SSW,192,0.0,0.0,88,0.00,,---,0.00,VWS V14.00,2013-04-26 11:40:00,
2013-04-26 07:43:00,37.4,34.2,30.37,SSW,192,0.0,0.0,88,0.00,,---,0.00,VWS V14.00,2013-04-26 11:43:00,
2013-04-26 07:44:00,37.4,34.2,30.37,South,191,0.0,0.0,88,0.00,,---,0.00,VWS V14.00,2013-04-26 11:44:00,
2013-04-26 07:46:00,37.5,34.0,30.37,SSW,192,0.0,0.0,87,0.00,,---,0.00,VWS V14.00,2013-04-26 11:46:00,
2013-04-26 07:48:00,37.7,34.2,30.37,SSW,192,0.0,2.0,87,0.00,,---,0.00,VWS V14.00,2013-04-26 11:48:00,
2013-04-26 07:51:00,37.8,34.3,30.38,SSW,192,0.0,2.0,87,0.00,,---,0.00,VWS V14.00,2013-04-26 11:51:00,
2013-04-26 07:52:00,38.0,34.5,30.38,SSW,192,0.0,2.0,87,0.00,,---,0.00,VWS V14.00,2013-04-26 11:52:00,
2013-04-26 07:54:00,38.2,34.7,30.38,SSW,192,0.0,2.0,87,0.00,,---,0.00,VWS V14.00,2013-04-26 11:54:00,
2013-04-26 07:55:00,38.3,34.5,30.38,SSW,192,0.0,2.0,86,0.00,,---,0.00,VWS V14.00,2013-04-26 11:55:00,
2013-04-26 07:56:00,38.3,34.5,30.38,SSW,192,0.0,2.0,86,0.00,,---,0.00,VWS V14.00,2013-04-26 11:56:00,
2013-04-26 07:57:00,38.5,34.7,30.37,SSW,192,0.0,2.0,86,0.00,,---,0.00,VWS V14.00,2013-04-26 11:57:00,
2013-04-26 08:00:00,38.9,35.1,30.38,SSW,192,0.0,0.0,86,0.00,,---,0.00,VWS V14.00,2013-04-26 12:00:00,
2013-04-26 08:01:00,38.9,35.1,30.38,SSW,192,0.0,0.0,86,0.00,,---,0.00,VWS V14.00,2013-04-26 12:01:00,
2013-04-26 08:02:00,39.1,35.3,30.38,SSW,192,0.0,0.0,86,0.00,,---,0.00,VWS V14.00,2013-04-26 12:02:00,
2013-04-26 08:03:00,39.2,35.4,30.38,SSW,192,0.0,0.0,86,0.00,,---,0.00,VWS V14.00,2013-04-26 12:03:00,
2013-04-26 08:04:00,39.4,35.3,30.38,South,191,0.0,0.0,85,0.00,,---,0.00,VWS V14.00,2013-04-26 12:04:00,
2013-04-26 08:06:00,39.6,35.5,30.38,South,191,0.0,0.0,85,0.00,,---,0.00,VWS V14.00,2013-04-26 12:06:00,
2013-04-26 08:07:00,39.9,35.8,30.38,SSW,192,0.0,0.0,85,0.00,,---,0.00,VWS V14.00,2013-04-26 12:07:00,
2013-04-26 08:10:00,40.2,35.8,30.38,SSW,192,0.0,0.0,84,0.00,,---,0.00,VWS V14.00,2013-04-26 12:10:00,
2013-04-26 08:14:00,40.9,36.5,30.38,South,191,0.0,1.0,84,0.00,,---,0.00,VWS V14.00,2013-04-26 12:14:00,
2013-04-26 08:15:00,41.0,36.2,30.38,South,187,2.0,4.0,83,0.00,,---,0.00,VWS V14.00,2013-04-26 12:15:00,
2013-04-26 08:16:00,41.1,36.0,30.38,South,187,0.0,4.0,82,0.00,,---,0.00,VWS V14.00,2013-04-26 12:16:00,
2013-04-26 08:18:00,41.2,36.1,30.38,South,169,0.0,5.0,82,0.00,,---,0.00,VWS V14.00,2013-04-26 12:18:00,
2013-04-26 08:19:00,41.3,36.2,30.38,South,175,0.0,5.0,82,0.00,,---,0.00,VWS V14.00,2013-04-26 12:19:00,
2013-04-26 08:21:00,41.5,36.4,30.38,SSE,161,4.0,5.0,82,0.00,,---,0.00,VWS V14.00,2013-04-26 12:21:00,
2013-04-26 08:22:00,41.6,36.2,30.38,SSE,161,5.0,5.0,81,0.00,,---,0.00,VWS V14.00,2013-04-26 12:22:00,
2013-04-26 08:24:00,41.9,36.5,30.38,SSE,167,5.0,7.0,81,0.00,,---,0.00,VWS V14.00,2013-04-26 12:24:00,
2013-04-26 08:26:00,42.2,36.8,30.38,South,175,9.0,9.0,81,0.00,,---,0.00,VWS V14.00,2013-04-26 12:26:00,
2013-04-26 08:27:00,42.3,36.6,30.38,South,179,3.0,9.0,80,0.00,,---,0.00,VWS V14.00,2013-04-26 12:27:00,
2013-04-26 08:29:00,42.6,36.9,30.38,South,169,3.0,5.0,80,0.00,,---,0.00,VWS V14.00,2013-04-26 12:29:00,
2013-04-26 08:31:00,42.8,36.8,30.38,South,183,5.0,11.0,79,0.00,,---,0.00,VWS V14.00,2013-04-26 12:31:00,
2013-04-26 08:32:00,42.9,36.8,30.38,South,170,5.0,11.0,79,0.00,,---,0.00,VWS V14.00,2013-04-26 12:32:00,
2013-04-26 08:33:00,43.0,36.9,30.39,South,184,2.0,11.0,79,0.00,,---,0.00,VWS V14.00,2013-04-26 12:33:00,
2013-04-26 08:34:00,43.2,36.8,30.38,SSE,167,4.0,11.0,78,0.00,,---,0.00,VWS V14.00,2013-04-26 12:34:00,
2013-04-26 08:36:00,43.5,37.4,30.38,South,173,5.0,11.0,79,0.00,,---,0.00,VWS V14.00,2013-04-26 12:36:00,
2013-04-26 08:37:00,43.6,37.2,30.38,South,182,5.0,11.0,78,0.00,,---,0.00,VWS V14.00,2013-04-26 12:37:00,
2013-04-26 08:38:00,43.7,37.0,30.38,SSW,194,7.0,11.0,77,0.00,,---,0.00,VWS V14.00,2013-04-26 12:38:00,
2013-04-26 08:39:00,43.8,36.7,30.39,South,173,5.0,11.0,76,0.00,,---,0.00,VWS V14.00,2013-04-26 12:39:00,
2013-04-26 08:40:00,43.9,36.8,30.39,South,171,4.0,11.0,76,0.00,,---,0.00,VWS V14.00,2013-04-26 12:40:00,
2013-04-26 08:42:00,44.1,36.7,30.39,SSE,164,5.0,11.0,75,0.00,,---,0.00,VWS V14.00,2013-04-26 12:42:00,
2013-04-26 08:44:00,44.2,36.1,30.39,SSE,168,6.0,13.0,73,0.00,,---,0.00,VWS V14.00,2013-04-26 12:44:00,
2013-04-26 08:45:00,44.2,36.1,30.39,South,188,4.0,13.0,73,0.00,,---,0.00,VWS V14.00,2013-04-26 12:45:00,
2013-04-26 08:47:00,44.5,36.4,30.39,South,184,4.0,13.0,73,0.00,,---,0.00,VWS V14.00,2013-04-26 12:47:00,
2013-04-26 08:49:00,44.8,36.3,30.39,SSE,168,2.0,13.0,72,0.00,,---,0.00,VWS V14.00,2013-04-26 12:49:00,
2013-04-26 08:50:00,45.0,36.5,30.39,South,180,6.0,13.0,72,0.00,,---,0.00,VWS V14.00,2013-04-26 12:50:00,
2013-04-26 08:53:00,45.1,35.9,30.39,South,173,4.0,13.0,70,0.00,,---,0.00,VWS V14.00,2013-04-26 12:53:00,
2013-04-26 08:55:00,45.3,36.5,30.38,South,182,5.0,13.0,71,0.00,,---,0.00,VWS V14.00,2013-04-26 12:55:00,
2013-04-26 08:58:00,45.6,36.0,30.39,South,178,4.0,13.0,69,0.00,,---,0.00,VWS V14.00,2013-04-26 12:58:00,
2013-04-26 08:59:00,45.7,35.8,30.38,South,176,7.0,10.0,68,0.00,,---,0.00,VWS V14.00,2013-04-26 12:59:00,
2013-04-26 09:00:00,45.8,35.8,30.38,South,173,6.0,10.0,68,0.00,,---,0.00,VWS V14.00,2013-04-26 13:00:00,
2013-04-26 09:01:00,45.9,35.6,30.39,SSE,168,5.0,10.0,67,0.00,,---,0.00,VWS V14.00,2013-04-26 13:01:00,
2013-04-26 09:04:00,46.2,35.9,30.39,South,169,6.0,10.0,67,0.00,,---,0.00,VWS V14.00,2013-04-26 13:04:00,
2013-04-26 09:05:00,46.4,36.0,30.39,SSW,211,3.0,10.0,67,0.00,,---,0.00,VWS V14.00,2013-04-26 13:05:00,
2013-04-26 09:07:00,46.7,36.0,30.39,South,171,5.0,10.0,66,0.00,,---,0.00,VWS V14.00,2013-04-26 13:07:00,
2013-04-26 09:09:00,46.8,35.7,30.39,SSW,192,0.0,10.0,65,0.00,,---,0.00,VWS V14.00,2013-04-26 13:09:00,
2013-04-26 09:12:00,47.2,35.7,30.39,South,181,5.0,10.0,64,0.00,,---,0.00,VWS V14.00,2013-04-26 13:12:00,
2013-04-26 09:14:00,47.5,35.5,30.39,SSE,153,8.0,10.0,63,0.00,,---,0.00,VWS V14.00,2013-04-26 13:14:00,
2013-04-26 09:15:00,47.6,35.6,30.39,South,174,5.0,10.0,63,0.00,,---,0.00,VWS V14.00,2013-04-26 13:15:00,
2013-04-26 09:17:00,47.5,35.1,30.39,South,175,5.0,10.0,62,0.00,,---,0.00,VWS V14.00,2013-04-26 13:17:00,
2013-04-26 09:18:00,47.6,35.2,30.39,SSE,167,6.0,10.0,62,0.00,,---,0.00,VWS V14.00,2013-04-26 13:18:00,
2013-04-26 09:20:00,47.7,35.3,30.39,SSE,162,9.0,11.0,62,0.00,,---,0.00,VWS V14.00,2013-04-26 13:20:00,
2013-04-26 09:21:00,47.7,35.3,30.39,South,183,5.0,11.0,62,0.00,,---,0.00,VWS V14.00,2013-04-26 13:21:00,
2013-04-26 09:23:00,48.0,35.6,30.39,SSE,168,4.0,11.0,62,0.00,,---,0.00,VWS V14.00,2013-04-26 13:23:00,
2013-04-26 09:24:00,48.1,35.7,30.39,South,170,5.0,11.0,62,0.00,,---,0.00,VWS V14.00,2013-04-26 13:24:00,
2013-04-26 09:26:00,48.1,35.3,30.39,SSW,192,3.0,11.0,61,0.00,,---,0.00,VWS V14.00,2013-04-26 13:26:00,
2013-04-26 09:28:00,48.3,35.5,30.39,South,190,6.0,11.0,61,0.00,,---,0.00,VWS V14.00,2013-04-26 13:28:00,
2013-04-26 09:30:00,48.4,35.6,30.39,South,183,5.0,9.0,61,0.00,,---,0.00,VWS V14.00,2013-04-26 13:30:00,
2013-04-26 09:31:00,48.4,35.2,30.39,SSW,196,5.0,9.0,60,0.00,,---,0.00,VWS V14.00,2013-04-26 13:31:00,
2013-04-26 09:33:00,48.5,35.3,30.39,South,179,6.0,11.0,60,0.00,,---,0.00,VWS V14.00,2013-04-26 13:33:00,
2013-04-26 09:34:00,48.5,35.7,30.39,SSE,168,6.0,11.0,61,0.00,,---,0.00,VWS V14.00,2013-04-26 13:34:00,
2013-04-26 09:36:00,48.9,36.9,30.39,SSE,168,5.0,11.0,63,0.00,,---,0.00,VWS V14.00,2013-04-26 13:36:00,
2013-04-26 09:37:00,49.1,37.1,30.39,South,180,3.0,11.0,63,0.00,,---,0.00,VWS V14.00,2013-04-26 13:37:00,
2013-04-26 09:39:00,49.4,36.9,30.39,SSE,165,6.0,11.0,62,0.00,,---,0.00,VWS V14.00,2013-04-26 13:39:00,
2013-04-26 09:42:00,49.5,36.2,30.38,South,171,4.0,11.0,60,0.00,,---,0.00,VWS V14.00,2013-04-26 13:42:00,
2013-04-26 09:44:00,49.6,35.9,30.38,SSW,203,2.0,11.0,59,0.00,,---,0.00,VWS V14.00,2013-04-26 13:44:00,
2013-04-26 09:45:00,49.7,36.0,30.38,South,185,5.0,11.0,59,0.00,,---,0.00,VWS V14.00,2013-04-26 13:45:00,
2013-04-26 09:46:00,49.9,36.6,30.38,SSW,192,6.0,11.0,60,0.00,,---,0.00,VWS V14.00,2013-04-26 13:46:00,
2013-04-26 09:47:00,49.9,35.7,30.38,South,182,4.0,11.0,58,0.00,,---,0.00,VWS V14.00,2013-04-26 13:47:00,
2013-04-26 09:49:00,50.0,35.8,30.38,South,180,6.0,11.0,58,0.00,,---,0.00,VWS V14.00,2013-04-26 13:49:00,
2013-04-26 09:51:00,50.0,35.8,30.38,South,187,9.0,13.0,58,0.00,,---,0.00,VWS V14.00,2013-04-26 13:51:00,
2013-04-26 09:52:00,50.0,35.4,30.38,South,183,10.0,13.0,57,0.00,,---,0.00,VWS V14.00,2013-04-26 13:52:00,
2013-04-26 09:55:00,49.9,36.2,30.38,South,172,13.0,13.0,59,0.00,,---,0.00,VWS V14.00,2013-04-26 13:55:00,
2013-04-26 09:56:00,50.1,36.3,30.38,South,174,10.0,13.0,59,0.00,,---,0.00,VWS V14.00,2013-04-26 13:56:00,
2013-04-26 09:58:00,50.3,36.1,30.38,SSE,163,6.0,14.0,58,0.00,,---,0.00,VWS V14.00,2013-04-26 13:58:00,
2013-04-26 10:00:00,50.4,35.8,30.38,South,175,12.0,12.0,57,0.00,,---,0.00,VWS V14.00,2013-04-26 14:00:00,
2013-04-26 10:03:00,50.5,35.4,30.38,South,175,6.0,16.0,56,0.00,,---,0.00,VWS V14.00,2013-04-26 14:03:00,
2013-04-26 10:04:00,50.5,35.4,30.38,South,179,12.0,16.0,56,0.00,,---,0.00,VWS V14.00,2013-04-26 14:04:00,
2013-04-26 10:05:00,50.4,34.9,30.38,South,175,11.0,16.0,55,0.00,,---,0.00,VWS V14.00,2013-04-26 14:05:00,
2013-04-26 10:06:00,50.4,34.9,30.38,South,189,11.0,16.0,55,0.00,,---,0.00,VWS V14.00,2013-04-26 14:06:00,
2013-04-26 10:10:00,50.9,35.8,30.38,SSW,213,5.0,16.0,56,0.00,,---,0.00,VWS V14.00,2013-04-26 14:10:00,
2013-04-26 10:11:00,51.1,35.5,30.38,South,171,6.0,16.0,55,0.00,,---,0.00,VWS V14.00,2013-04-26 14:11:00,
2013-04-26 10:12:00,51.2,35.6,30.38,SSE,168,5.0,16.0,55,0.00,,---,0.00,VWS V14.00,2013-04-26 14:12:00,
2013-04-26 10:17:00,51.9,35.8,30.37,South,186,6.0,16.0,54,0.00,,---,0.00,VWS V14.00,2013-04-26 14:17:00,
2013-04-26 10:18:00,52.0,35.4,30.37,South,172,3.0,16.0,53,0.00,,---,0.00,VWS V14.00,2013-04-26 14:18:00,
2013-04-26 10:19:00,52.0,34.9,30.37,South,171,13.0,16.0,52,0.00,,---,0.00,VWS V14.00,2013-04-26 14:19:00,
2013-04-26 10:22:00,51.9,34.8,30.37,South,190,6.0,16.0,52,0.00,,---,0.00,VWS V14.00,2013-04-26 14:22:00,
2013-04-26 10:23:00,51.9,34.8,30.37,SSW,209,4.0,16.0,52,0.00,,---,0.00,VWS V14.00,2013-04-26 14:23:00,
2013-04-26 10:25:00,52.1,34.5,30.37,South,190,5.0,16.0,51,0.00,,---,0.00,VWS V14.00,2013-04-26 14:25:00,
2013-04-26 10:27:00,52.2,34.6,30.37,South,186,8.0,16.0,51,0.00,,---,0.00,VWS V14.00,2013-04-26 14:27:00,
2013-04-26 10:29:00,52.3,34.7,30.37,SSW,211,2.0,10.0,51,0.00,,---,0.00,VWS V14.00,2013-04-26 14:29:00,
2013-04-26 10:30:00,52.4,34.8,30.38,SSW,196,4.0,11.0,51,0.00,,---,0.00,VWS V14.00,2013-04-26 14:30:00,
2013-04-26 10:33:00,52.5,35.4,30.38,South,183,4.0,13.0,52,0.00,,---,0.00,VWS V14.00,2013-04-26 14:33:00,
2013-04-26 10:34:00,52.5,35.4,30.37,SSE,164,4.0,13.0,52,0.00,,---,0.00,VWS V14.00,2013-04-26 14:34:00,
2013-04-26 10:36:00,52.6,34.5,30.38,South,191,3.0,13.0,50,0.00,,---,0.00,VWS V14.00,2013-04-26 14:36:00,
2013-04-26 10:37:00,52.7,34.6,30.38,SSE,158,5.0,13.0,50,0.00,,---,0.00,VWS V14.00,2013-04-26 14:37:00,
2013-04-26 10:38:00,52.8,34.7,30.38,South,171,0.0,13.0,50,0.00,,---,0.00,VWS V14.00,2013-04-26 14:38:00,
2013-04-26 10:40:00,53.1,35.5,30.38,SSE,165,4.0,13.0,51,0.00,,---,0.00,VWS V14.00,2013-04-26 14:40:00,
2013-04-26 10:41:00,53.5,35.8,30.38,SSE,165,6.0,13.0,51,0.00,,---,0.00,VWS V14.00,2013-04-26 14:41:00,
2013-04-26 10:42:00,53.5,35.8,30.37,South,180,4.0,13.0,51,0.00,,---,0.00,VWS V14.00,2013-04-26 14:42:00,
2013-04-26 10:46:00,53.7,35.5,30.38,South,170,6.0,13.0,50,0.00,,---,0.00,VWS V14.00,2013-04-26 14:46:00,
2013-04-26 10:47:00,53.7,35.5,30.38,South,184,11.0,13.0,50,0.00,,---,0.00,VWS V14.00,2013-04-26 14:47:00,
2013-04-26 10:48:00,53.6,34.9,30.38,South,186,8.0,13.0,49,0.00,,---,0.00,VWS V14.00,2013-04-26 14:48:00,
2013-04-26 10:51:00,53.5,34.8,30.38,SSW,198,4.0,13.0,49,0.00,,---,0.00,VWS V14.00,2013-04-26 14:51:00,
2013-04-26 10:52:00,53.6,35.4,30.38,South,190,5.0,13.0,50,0.00,,---,0.00,VWS V14.00,2013-04-26 14:52:00,
2013-04-26 10:56:00,54.1,35.4,30.37,South,184,4.0,13.0,49,0.00,,---,0.00,VWS V14.00,2013-04-26 14:56:00,
2013-04-26 10:57:00,54.2,35.0,30.37,SW,225,9.0,13.0,48,0.00,,---,0.00,VWS V14.00,2013-04-26 14:57:00,
2013-04-26 10:59:00,54.3,35.0,30.37,SSE,161,4.0,9.0,48,0.00,,---,0.00,VWS V14.00,2013-04-26 14:59:00,
2013-04-26 11:02:00,54.4,35.1,30.37,SSE,159,7.0,11.0,48,0.00,,---,0.00,VWS V14.00,2013-04-26 15:02:00,
2013-04-26 11:03:00,54.4,35.1,30.37,SSE,162,7.0,11.0,48,0.00,,---,0.00,VWS V14.00,2013-04-26 15:03:00,
2013-04-26 11:04:00,54.5,34.7,30.37,South,190,5.0,11.0,47,0.00,,---,0.00,VWS V14.00,2013-04-26 15:04:00,
2013-04-26 11:07:00,54.5,35.2,30.37,SSW,192,4.0,12.0,48,0.00,,---,0.00,VWS V14.00,2013-04-26 15:07:00,
2013-04-26 11:08:00,54.5,35.2,30.37,SW,233,6.0,12.0,48,0.00,,---,0.00,VWS V14.00,2013-04-26 15:08:00,
2013-04-26 11:10:00,54.6,36.3,30.38,SW,219,9.0,13.0,50,0.00,,---,0.00,VWS V14.00,2013-04-26 15:10:00,
2013-04-26 11:12:00,54.7,34.3,30.38,SW,233,5.0,13.0,46,0.00,,---,0.00,VWS V14.00,2013-04-26 15:12:00,
2013-04-26 11:13:00,54.8,34.4,30.38,SSW,200,3.0,13.0,46,0.00,,---,0.00,VWS V14.00,2013-04-26 15:13:00,
2013-04-26 11:14:00,55.0,34.6,30.38,SSE,153,9.0,13.0,46,0.00,,---,0.00,VWS V14.00,2013-04-26 15:14:00,
2013-04-26 11:16:00,55.2,35.3,30.38,SSW,194,0.0,13.0,47,0.00,,---,0.00,VWS V14.00,2013-04-26 15:16:00,
2013-04-26 11:18:00,55.5,34.5,30.38,SSE,167,9.0,13.0,45,0.00,,---,0.00,VWS V14.00,2013-04-26 15:18:00,
2013-04-26 11:19:00,55.7,34.7,30.38,WSW,248,7.0,13.0,45,0.00,,---,0.00,VWS V14.00,2013-04-26 15:19:00,
2013-04-26 11:20:00,55.7,34.7,30.38,South,173,8.0,13.0,45,0.00,,---,0.00,VWS V14.00,2013-04-26 15:20:00,
2013-04-26 11:21:00,55.8,34.8,30.38,South,173,2.0,13.0,45,0.00,,---,0.00,VWS V14.00,2013-04-26 15:21:00,
2013-04-26 11:24:00,56.1,34.5,30.38,SW,221,4.0,14.0,44,0.00,,---,0.00,VWS V14.00,2013-04-26 15:24:00,
2013-04-26 11:25:00,56.2,34.6,30.38,South,171,6.0,14.0,44,0.00,,---,0.00,VWS V14.00,2013-04-26 15:25:00,
2013-04-26 11:26:00,56.2,34.0,30.38,SW,223,6.0,14.0,43,0.00,,---,0.00,VWS V14.00,2013-04-26 15:26:00,
2013-04-26 11:28:00,55.9,34.3,30.38,SSE,165,6.0,14.0,44,0.00,,---,0.00,VWS V14.00,2013-04-26 15:28:00,
2013-04-26 11:29:00,55.9,34.9,30.38,SSW,192,4.0,7.0,45,0.00,,---,0.00,VWS V14.00,2013-04-26 15:29:00,
2013-04-26 11:30:00,56.0,35.0,30.38,SSW,207,3.0,7.0,45,0.00,,---,0.00,VWS V14.00,2013-04-26 15:30:00,
2013-04-26 11:32:00,56.0,34.4,30.37,WSW,242,7.0,7.0,44,0.00,,---,0.00,VWS V14.00,2013-04-26 15:32:00,
2013-04-26 11:34:00,56.1,34.5,30.37,SW,214,4.0,7.0,44,0.00,,---,0.00,VWS V14.00,2013-04-26 15:34:00,
2013-04-26 11:36:00,56.5,36.5,30.37,SSE,157,11.0,12.0,47,0.00,,---,0.00,VWS V14.00,2013-04-26 15:36:00,
2013-04-26 11:37:00,56.6,35.5,30.37,South,190,1.0,12.0,45,0.00,,---,0.00,VWS V14.00,2013-04-26 15:37:00,
2013-04-26 11:38:00,56.6,36.1,30.37,SSW,204,11.0,13.0,46,0.00,,---,0.00,VWS V14.00,2013-04-26 15:38:00,
2013-04-26 11:40:00,56.5,34.9,30.37,South,178,9.0,13.0,44,0.00,,---,0.00,VWS V14.00,2013-04-26 15:40:00,
2013-04-26 11:41:00,56.4,36.4,30.37,SSE,165,0.0,13.0,47,0.00,,---,0.00,VWS V14.00,2013-04-26 15:41:00,
2013-04-26 11:42:00,56.6,36.1,30.37,SSE,164,5.0,13.0,46,0.00,,---,0.00,VWS V14.00,2013-04-26 15:42:00,
2013-04-26 11:43:00,56.8,36.3,30.37,SSE,165,0.0,13.0,46,0.00,,---,0.00,VWS V14.00,2013-04-26 15:43:00,
2013-04-26 11:45:00,57.0,35.9,30.36,SSE,159,3.0,14.0,45,0.00,,---,0.00,VWS V14.00,2013-04-26 15:45:00,
2013-04-26 11:47:00,57.1,36.5,30.36,SSW,211,9.0,14.0,46,0.00,,---,0.00,VWS V14.00,2013-04-26 15:47:00,
2013-04-26 11:48:00,56.9,35.2,30.37,South,184,6.0,14.0,44,0.00,,---,0.00,VWS V14.00,2013-04-26 15:48:00,
2013-04-26 11:50:00,56.8,36.3,30.36,South,181,9.0,14.0,46,0.00,,---,0.00,VWS V14.00,2013-04-26 15:50:00,
2013-04-26 11:52:00,56.8,35.7,30.36,SSW,206,5.0,14.0,45,0.00,,---,0.00,VWS V14.00,2013-04-26 15:52:00,
2013-04-26 11:53:00,56.8,35.7,30.36,South,179,6.0,14.0,45,0.00,,---,0.00,VWS V14.00,2013-04-26 15:53:00,
2013-04-26 11:54:00,56.7,35.0,30.36,SW,215,7.0,14.0,44,0.00,,---,0.00,VWS V14.00,2013-04-26 15:54:00,
2013-04-26 11:55:00,56.7,35.0,30.36,SSW,213,4.0,14.0,44,0.00,,---,0.00,VWS V14.00,2013-04-26 15:55:00,
2013-04-26 11:57:00,56.8,34.6,30.36,SSE,156,6.0,14.0,43,0.00,,---,0.00,VWS V14.00,2013-04-26 15:57:00,
2013-04-26 11:58:00,56.8,35.7,30.36,South,172,6.0,14.0,45,0.00,,---,0.00,VWS V14.00,2013-04-26 15:58:00,
2013-04-26 11:59:00,56.9,35.8,30.36,South,178,9.0,9.0,45,0.00,,---,0.00,VWS V14.00,2013-04-26 15:59:00,
2013-04-26 12:02:00,56.7,35.6,30.36,SSE,164,7.0,17.0,45,0.00,,---,0.00,VWS V14.00,2013-04-26 16:02:00,
2013-04-26 12:03:00,56.7,36.7,30.36,South,169,7.0,17.0,47,0.00,,---,0.00,VWS V14.00,2013-04-26 16:03:00,
2013-04-26 12:04:00,56.8,36.8,30.36,South,191,11.0,17.0,47,0.00,,---,0.00,VWS V14.00,2013-04-26 16:04:00,
2013-04-26 12:05:00,57.1,37.1,30.36,SSE,155,13.0,17.0,47,0.00,,---,0.00,VWS V14.00,2013-04-26 16:05:00,
2013-04-26 12:06:00,57.3,37.3,30.36,South,180,10.0,17.0,47,0.00,,---,0.00,VWS V14.00,2013-04-26 16:06:00,
2013-04-26 12:09:00,57.5,36.9,30.36,South,173,10.0,17.0,46,0.00,,---,0.00,VWS V14.00,2013-04-26 16:09:00,
2013-04-26 12:10:00,57.5,36.3,30.36,South,171,5.0,17.0,45,0.00,,---,0.00,VWS V14.00,2013-04-26 16:10:00,
2013-04-26 12:11:00,57.6,36.4,30.36,SW,222,10.0,17.0,45,0.00,,---,0.00,VWS V14.00,2013-04-26 16:11:00,
2013-04-26 12:13:00,57.7,36.5,30.35,South,182,4.0,17.0,45,0.00,,---,0.00,VWS V14.00,2013-04-26 16:13:00,
2013-04-26 12:14:00,57.9,36.7,30.35,SE,143,3.0,17.0,45,0.00,,---,0.00,VWS V14.00,2013-04-26 16:14:00,
2013-04-26 12:17:00,58.0,36.2,30.35,SSW,202,4.0,17.0,44,0.00,,---,0.00,VWS V14.00,2013-04-26 16:17:00,
2013-04-26 12:19:00,58.1,36.3,30.35,SW,214,6.0,17.0,44,0.00,,---,0.00,VWS V14.00,2013-04-26 16:19:00,
2013-04-26 12:20:00,58.1,36.3,30.35,SSE,160,6.0,17.0,44,0.00,,---,0.00,VWS V14.00,2013-04-26 16:20:00,
2013-04-26 12:22:00,58.1,36.3,30.35,SSE,167,10.0,18.0,44,0.00,,---,0.00,VWS V14.00,2013-04-26 16:22:00,
2013-04-26 12:25:00,57.8,37.7,30.35,SSE,150,5.0,18.0,47,0.00,,---,0.00,VWS V14.00,2013-04-26 16:25:00,
2013-04-26 12:26:00,57.8,37.2,30.35,SSE,163,5.0,18.0,46,0.00,,---,0.00,VWS V14.00,2013-04-26 16:26:00,
2013-04-26 12:28:00,58.0,36.2,30.35,South,176,5.0,18.0,44,0.00,,---,0.00,VWS V14.00,2013-04-26 16:28:00,
2013-04-26 12:29:00,58.0,36.8,30.35,South,188,3.0,7.0,45,0.00,,---,0.00,VWS V14.00,2013-04-26 16:29:00,
2013-04-26 12:30:00,58.0,36.8,30.35,South,182,7.0,9.0,45,0.00,,---,0.00,VWS V14.00,2013-04-26 16:30:00,
2013-04-26 12:32:00,58.0,36.2,30.35,South,184,7.0,13.0,44,0.00,,---,0.00,VWS V14.00,2013-04-26 16:32:00,
2013-04-26 12:33:00,58.0,36.8,30.35,South,183,10.0,14.0,45,0.00,,---,0.00,VWS V14.00,2013-04-26 16:33:00,
2013-04-26 12:34:00,57.9,36.7,30.35,SSW,206,6.0,15.0,45,0.00,,---,0.00,VWS V14.00,2013-04-26 16:34:00,
2013-04-26 12:35:00,58.2,37.5,30.35,South,177,12.0,15.0,46,0.00,,---,0.00,VWS V14.00,2013-04-26 16:35:00,
2013-04-26 12:36:00,58.2,37.5,30.35,SSE,164,10.0,17.0,46,0.00,,---,0.00,VWS V14.00,2013-04-26 16:36:00,
2013-04-26 12:39:00,58.7,36.9,30.35,West,267,4.0,17.0,44,0.00,,---,0.00,VWS V14.00,2013-04-26 16:39:00,
2013-04-26 12:41:00,58.7,36.3,30.35,SW,217,4.0,17.0,43,0.00,,---,0.00,VWS V14.00,2013-04-26 16:41:00,
2013-04-26 12:42:00,59.0,37.1,30.35,SSE,166,5.0,17.0,44,0.00,,---,0.00,VWS V14.00,2013-04-26 16:42:00,
2013-04-26 12:45:00,59.0,37.1,30.34,South,188,6.0,17.0,44,0.00,,---,0.00,VWS V14.00,2013-04-26 16:45:00,
2013-04-26 12:46:00,59.2,37.3,30.34,South,169,7.0,17.0,44,0.00,,---,0.00,VWS V14.00,2013-04-26 16:46:00,
2013-04-26 12:47:00,59.2,36.7,30.34,SSE,159,10.0,17.0,43,0.00,,---,0.00,VWS V14.00,2013-04-26 16:47:00,
2013-04-26 12:51:00,59.1,37.2,30.35,SSW,211,5.0,17.0,44,0.00,,---,0.00,VWS V14.00,2013-04-26 16:51:00,
2013-04-26 12:52:00,59.3,36.8,30.34,WNW,285,9.0,17.0,43,0.00,,---,0.00,VWS V14.00,2013-04-26 16:52:00,
2013-04-26 12:54:00,59.3,36.8,30.35,SSE,158,12.0,18.0,43,0.00,,---,0.00,VWS V14.00,2013-04-26 16:54:00,
2013-04-26 12:55:00,59.0,37.1,30.35,South,185,15.0,18.0,44,0.00,,---,0.00,VWS V14.00,2013-04-26 16:55:00,
2013-04-26 12:56:00,59.0,37.7,30.34,SSW,194,10.0,18.0,45,0.00,,---,0.00,VWS V14.00,2013-04-26 16:56:00,
2013-04-26 12:59:00,59.0,37.1,30.35,South,175,9.0,10.0,44,0.00,,---,0.00,VWS V14.00,2013-04-26 16:59:00,
2013-04-26 13:00:00,59.0,37.1,30.35,SSW,213,9.0,12.0,44,0.00,,---,0.00,VWS V14.00,2013-04-26 17:00:00,
2013-04-26 13:02:00,59.2,37.9,30.35,South,176,7.0,12.0,45,0.00,,---,0.00,VWS V14.00,2013-04-26 17:02:00,
2013-04-26 13:03:00,59.1,37.2,30.34,South,188,7.0,13.0,44,0.00,,---,0.00,VWS V14.00,2013-04-26 17:03:00,
2013-04-26 13:04:00,59.0,37.1,30.35,SSW,196,3.0,14.0,44,0.00,,---,0.00,VWS V14.00,2013-04-26 17:04:00,
2013-04-26 13:06:00,59.0,37.1,30.34,South,181,3.0,14.0,44,0.00,,---,0.00,VWS V14.00,2013-04-26 17:06:00,
2013-04-26 13:07:00,59.3,37.4,30.34,SSE,165,4.0,14.0,44,0.00,,---,0.00,VWS V14.00,2013-04-26 17:07:00,
2013-04-26 13:08:00,59.5,37.6,30.34,SW,226,5.0,14.0,44,0.00,,---,0.00,VWS V14.00,2013-04-26 17:08:00,
2013-04-26 13:10:00,59.7,37.2,30.34,South,171,6.0,14.0,43,0.00,,---,0.00,VWS V14.00,2013-04-26 17:10:00,
2013-04-26 13:11:00,59.7,37.2,30.34,South,173,5.0,14.0,43,0.00,,---,0.00,VWS V14.00,2013-04-26 17:11:00,
2013-04-26 13:14:00,59.7,37.2,30.34,SSW,198,13.0,14.0,43,0.00,,---,0.00,VWS V14.00,2013-04-26 17:14:00,
2013-04-26 13:15:00,59.6,37.1,30.34,SSE,150,8.0,16.0,43,0.00,,---,0.00,VWS V14.00,2013-04-26 17:15:00,
2013-04-26 13:16:00,59.6,37.7,30.34,SSW,192,6.0,16.0,44,0.00,,---,0.00,VWS V14.00,2013-04-26 17:16:00,
2013-04-26 13:17:00,59.5,37.6,30.34,South,179,2.0,16.0,44,0.00,,---,0.00,VWS V14.00,2013-04-26 17:17:00,
2013-04-26 13:19:00,59.5,37.0,30.34,WSW,239,5.0,16.0,43,0.00,,---,0.00,VWS V14.00,2013-04-26 17:19:00,
2013-04-26 13:21:00,60.1,38.1,30.34,South,176,16.0,16.0,44,0.00,,---,0.00,VWS V14.00,2013-04-26 17:21:00,
2013-04-26 13:24:00,60.2,38.2,30.33,South,172,10.0,19.0,44,0.00,,---,0.00,VWS V14.00,2013-04-26 17:24:00,
2013-04-26 13:25:00,60.1,38.1,30.33,South,179,4.0,19.0,44,0.00,,---,0.00,VWS V14.00,2013-04-26 17:25:00,
2013-04-26 13:26:00,60.1,38.1,30.33,SSE,164,10.0,19.0,44,0.00,,---,0.00,VWS V14.00,2013-04-26 17:26:00,
2013-04-26 13:28:00,60.0,38.0,30.33,SE,146,5.0,19.0,44,0.00,,---,0.00,VWS V14.00,2013-04-26 17:28:00,
2013-04-26 13:29:00,60.2,38.2,30.33,SW,225,2.0,8.0,44,0.00,,---,0.00,VWS V14.00,2013-04-26 17:29:00,
2013-04-26 13:32:00,60.5,37.9,30.33,South,175,15.0,15.0,43,0.00,,---,0.00,VWS V14.00,2013-04-26 17:32:00,
2013-04-26 13:34:00,60.7,38.1,30.33,South,186,7.0,15.0,43,0.00,,---,0.00,VWS V14.00,2013-04-26 17:34:00,
2013-04-26 13:35:00,60.8,38.8,30.33,SW,223,4.0,15.0,44,0.00,,---,0.00,VWS V14.00,2013-04-26 17:35:00,
2013-04-26 13:38:00,61.3,39.2,30.33,South,184,6.0,15.0,44,0.00,,---,0.00,VWS V14.00,2013-04-26 17:38:00,
2013-04-26 13:40:00,61.6,38.3,30.33,South,180,5.0,15.0,42,0.00,,---,0.00,VWS V14.00,2013-04-26 17:40:00,
2013-04-26 13:43:00,61.4,38.7,30.33,South,183,11.0,17.0,43,0.00,,---,0.00,VWS V14.00,2013-04-26 17:43:00,
2013-04-26 13:44:00,61.1,38.5,30.33,South,190,7.0,17.0,43,0.00,,---,0.00,VWS V14.00,2013-04-26 17:44:00,
2013-04-26 13:45:00,61.0,38.4,30.33,SSW,192,4.0,17.0,43,0.00,,---,0.00,VWS V14.00,2013-04-26 17:45:00,
2013-04-26 13:46:00,61.1,39.0,30.33,SW,215,3.0,17.0,44,0.00,,---,0.00,VWS V14.00,2013-04-26 17:46:00,
2013-04-26 13:49:00,61.4,38.1,30.33,SSW,208,4.0,19.0,42,0.00,,---,0.00,VWS V14.00,2013-04-26 17:49:00,
2013-04-26 13:50:00,61.4,38.1,30.33,SSW,200,13.0,19.0,42,0.00,,---,0.00,VWS V14.00,2013-04-26 17:50:00,
2013-04-26 13:51:00,61.4,38.1,30.33,SSE,167,10.0,19.0,42,0.00,,---,0.00,VWS V14.00,2013-04-26 17:51:00,
2013-04-26 13:55:00,60.7,37.5,30.33,SSE,161,12.0,19.0,42,0.00,,---,0.00,VWS V14.00,2013-04-26 17:55:00,
2013-04-26 13:56:00,60.6,37.4,30.33,South,171,17.0,19.0,42,0.00,,---,0.00,VWS V14.00,2013-04-26 17:56:00,
2013-04-26 13:57:00,60.5,37.3,30.33,SSW,194,11.0,20.0,42,0.00,,---,0.00,VWS V14.00,2013-04-26 17:57:00,
2013-04-26 13:58:00,60.2,37.0,30.33,South,180,13.0,20.0,42,0.00,,---,0.00,VWS V14.00,2013-04-26 17:58:00,
2013-04-26 14:02:00,60.1,37.5,30.33,SSE,160,11.0,18.0,43,0.00,,---,0.00,VWS V14.00,2013-04-26 18:02:00,
2013-04-26 14:03:00,60.2,37.6,30.33,SSW,198,6.0,18.0,43,0.00,,---,0.00,VWS V14.00,2013-04-26 18:03:00,
2013-04-26 14:04:00,60.3,38.3,30.33,SSE,161,9.0,18.0,44,0.00,,---,0.00,VWS V14.00,2013-04-26 18:04:00,
2013-04-26 14:05:00,60.3,38.9,30.32,SSE,156,10.0,18.0,45,0.00,,---,0.00,VWS V14.00,2013-04-26 18:05:00,
2013-04-26 14:09:00,60.2,38.8,30.32,SSE,162,7.0,18.0,45,0.00,,---,0.00,VWS V14.00,2013-04-26 18:09:00,
2013-04-26 14:10:00,60.3,38.9,30.32,South,169,15.0,18.0,45,0.00,,---,0.00,VWS V14.00,2013-04-26 18:10:00,
2013-04-26 14:11:00,60.4,38.4,30.32,South,174,16.0,20.0,44,0.00,,---,0.00,VWS V14.00,2013-04-26 18:11:00,
2013-04-26 14:12:00,60.5,39.1,30.32,SSE,168,15.0,20.0,45,0.00,,---,0.00,VWS V14.00,2013-04-26 18:12:00,
2013-04-26 14:14:00,60.9,40.5,30.32,South,173,11.0,21.0,47,0.00,,---,0.00,VWS V14.00,2013-04-26 18:14:00,
2013-04-26 14:16:00,60.8,38.8,30.31,SSW,194,8.0,22.0,44,0.00,,---,0.00,VWS V14.00,2013-04-26 18:16:00,
2013-04-26 14:17:00,60.7,38.7,30.32,South,183,11.0,22.0,44,0.00,,---,0.00,VWS V14.00,2013-04-26 18:17:00,
2013-04-26 14:18:00,60.7,38.1,30.31,SSW,196,4.0,22.0,43,0.00,,---,0.00,VWS V14.00,2013-04-26 18:18:00,
2013-04-26 14:22:00,60.8,38.8,30.31,South,169,12.0,22.0,44,0.00,,---,0.00,VWS V14.00,2013-04-26 18:22:00,
2013-04-26 14:23:00,61.0,39.5,30.31,South,172,18.0,22.0,45,0.00,,---,0.00,VWS V14.00,2013-04-26 18:23:00,
2013-04-26 14:24:00,60.9,38.9,30.31,South,186,16.0,22.0,44,0.00,,---,0.00,VWS V14.00,2013-04-26 18:24:00,
2013-04-26 14:27:00,61.2,39.1,30.31,SSW,196,11.0,22.0,44,0.00,,---,0.00,VWS V14.00,2013-04-26 18:27:00,
2013-04-26 14:28:00,61.2,39.1,30.31,SSW,196,5.0,22.0,44,0.00,,---,0.00,VWS V14.00,2013-04-26 18:28:00,
2013-04-26 14:29:00,61.2,39.1,30.31,South,189,10.0,18.0,44,0.00,,---,0.00,VWS V14.00,2013-04-26 18:29:00,
2013-04-26 14:33:00,61.3,39.2,30.31,South,186,10.0,18.0,44,0.00,,---,0.00,VWS V14.00,2013-04-26 18:33:00,
2013-04-26 14:34:00,61.5,38.8,30.31,South,173,18.0,25.0,43,0.00,,---,0.00,VWS V14.00,2013-04-26 18:34:00,
2013-04-26 14:35:00,61.5,38.8,30.31,SSE,162,13.0,25.0,43,0.00,,---,0.00,VWS V14.00,2013-04-26 18:35:00,
2013-04-26 14:38:00,61.4,38.7,30.31,South,186,7.0,25.0,43,0.00,,---,0.00,VWS V14.00,2013-04-26 18:38:00,
2013-04-26 14:39:00,61.3,38.6,30.31,South,183,8.0,25.0,43,0.00,,---,0.00,VWS V14.00,2013-04-26 18:39:00,
2013-04-26 14:40:00,61.3,38.6,30.31,South,173,4.0,25.0,43,0.00,,---,0.00,VWS V14.00,2013-04-26 18:40:00,
2013-04-26 14:42:00,61.9,39.8,30.31,South,169,6.0,25.0,44,0.00,,---,0.00,VWS V14.00,2013-04-26 18:42:00,
2013-04-26 14:44:00,62.3,39.5,30.31,South,189,6.0,25.0,43,0.00,,---,0.00,VWS V14.00,2013-04-26 18:44:00,
2013-04-26 14:45:00,62.3,38.9,30.31,SSE,165,13.0,25.0,42,0.00,,---,0.00,VWS V14.00,2013-04-26 18:45:00,
2013-04-26 14:46:00,62.1,39.4,30.31,SW,223,6.0,25.0,43,0.00,,---,0.00,VWS V14.00,2013-04-26 18:46:00,
2013-04-26 14:47:00,61.9,39.2,30.31,WSW,244,6.0,25.0,43,0.00,,---,0.00,VWS V14.00,2013-04-26 18:47:00,
2013-04-26 14:49:00,62.2,39.5,30.31,South,181,6.0,25.0,43,0.00,,---,0.00,VWS V14.00,2013-04-26 18:49:00,
2013-04-26 14:50:00,62.3,40.1,30.31,SSE,163,7.0,25.0,44,0.00,,---,0.00,VWS V14.00,2013-04-26 18:50:00,
2013-04-26 14:51:00,62.4,40.2,30.31,SSW,202,8.0,25.0,44,0.00,,---,0.00,VWS V14.00,2013-04-26 18:51:00,
2013-04-26 14:52:00,62.5,40.3,30.31,SSE,157,10.0,25.0,44,0.00,,---,0.00,VWS V14.00,2013-04-26 18:52:00,
2013-04-26 14:53:00,62.6,41.5,30.31,SSE,163,8.0,25.0,46,0.00,,---,0.00,VWS V14.00,2013-04-26 18:53:00,
2013-04-26 14:55:00,62.9,41.3,30.31,South,191,9.0,25.0,45,0.00,,---,0.00,VWS V14.00,2013-04-26 18:55:00,
2013-04-26 14:57:00,63.1,40.3,30.31,South,183,14.0,25.0,43,0.00,,---,0.00,VWS V14.00,2013-04-26 18:57:00,
2013-04-26 15:00:00,63.0,40.2,30.31,SSW,193,13.0,15.0,43,0.00,,---,0.00,VWS V14.00,2013-04-26 19:00:00,
2013-04-26 15:02:00,63.1,40.9,30.31,South,184,10.0,18.0,44,0.00,,---,0.00,VWS V14.00,2013-04-26 19:02:00,
2013-04-26 15:03:00,63.1,40.9,30.31,SSE,157,11.0,18.0,44,0.00,,---,0.00,VWS V14.00,2013-04-26 19:03:00,
2013-04-26 15:06:00,62.8,40.0,30.31,South,174,7.0,18.0,43,0.00,,---,0.00,VWS V14.00,2013-04-26 19:06:00,
2013-04-26 15:08:00,62.7,40.5,30.31,South,186,5.0,18.0,44,0.00,,---,0.00,VWS V14.00,2013-04-26 19:08:00,
2013-04-26 15:09:00,62.9,40.7,30.31,SSE,154,3.0,18.0,44,0.00,,---,0.00,VWS V14.00,2013-04-26 19:09:00,
2013-04-26 15:10:00,63.0,40.8,30.31,SSE,155,5.0,18.0,44,0.00,,---,0.00,VWS V14.00,2013-04-26 19:10:00,
2013-04-26 15:14:00,63.0,40.8,30.31,SSE,168,14.0,18.0,44,0.00,,---,0.00,VWS V14.00,2013-04-26 19:14:00,
2013-04-26 15:15:00,62.9,40.7,30.31,South,184,15.0,18.0,44,0.00,,---,0.00,VWS V14.00,2013-04-26 19:15:00,
2013-04-26 15:16:00,62.7,39.9,30.31,SSE,163,12.0,18.0,43,0.00,,---,0.00,VWS V14.00,2013-04-26 19:16:00,
2013-04-26 15:18:00,62.5,39.7,30.31,South,176,13.0,18.0,43,0.00,,---,0.00,VWS V14.00,2013-04-26 19:18:00,
2013-04-26 15:19:00,62.5,40.3,30.30,SSE,157,7.0,18.0,44,0.00,,---,0.00,VWS V14.00,2013-04-26 19:19:00,
2013-04-26 15:21:00,62.5,40.3,30.30,SSW,192,10.0,18.0,44,0.00,,---,0.00,VWS V14.00,2013-04-26 19:21:00,
2013-04-26 15:22:00,62.5,40.3,30.30,SSW,207,10.0,18.0,44,0.00,,---,0.00,VWS V14.00,2013-04-26 19:22:00,
2013-04-26 15:24:00,62.4,40.2,30.30,SSE,162,12.0,18.0,44,0.00,,---,0.00,VWS V14.00,2013-04-26 19:24:00,
2013-04-26 15:25:00,62.4,40.2,30.30,SE,146,12.0,18.0,44,0.00,,---,0.00,VWS V14.00,2013-04-26 19:25:00,
2013-04-26 15:28:00,62.4,40.8,30.30,South,173,11.0,18.0,45,0.00,,---,0.00,VWS V14.00,2013-04-26 19:28:00,
2013-04-26 15:29:00,62.5,40.3,30.30,WSW,242,11.0,15.0,44,0.00,,---,0.00,VWS V14.00,2013-04-26 19:29:00,
2013-04-26 15:30:00,62.5,40.3,30.30,SSE,168,16.0,19.0,44,0.00,,---,0.00,VWS V14.00,2013-04-26 19:30:00,
2013-04-26 15:31:00,62.3,39.5,30.30,SSE,153,6.0,19.0,43,0.00,,---,0.00,VWS V14.00,2013-04-26 19:31:00,
2013-04-26 15:33:00,62.2,41.2,30.30,SSE,159,10.0,19.0,46,0.00,,---,0.00,VWS V14.00,2013-04-26 19:33:00,
2013-04-26 15:34:00,62.4,41.9,30.30,South,180,15.0,19.0,47,0.00,,---,0.00,VWS V14.00,2013-04-26 19:34:00,
2013-04-26 15:36:00,62.7,41.6,30.30,SSE,153,6.0,19.0,46,0.00,,---,0.00,VWS V14.00,2013-04-26 19:36:00,
2013-04-26 15:38:00,62.9,41.8,30.29,SSE,163,10.0,19.0,46,0.00,,---,0.00,VWS V14.00,2013-04-26 19:38:00,
2013-04-26 15:39:00,62.9,41.8,30.29,South,180,6.0,19.0,46,0.00,,---,0.00,VWS V14.00,2013-04-26 19:39:00,
2013-04-26 15:40:00,62.9,41.3,30.29,South,169,13.0,19.0,45,0.00,,---,0.00,VWS V14.00,2013-04-26 19:40:00,
2013-04-26 15:41:00,62.9,41.3,30.29,South,180,14.0,19.0,45,0.00,,---,0.00,VWS V14.00,2013-04-26 19:41:00,
2013-04-26 15:44:00,62.5,40.9,30.29,SSE,164,9.0,19.0,45,0.00,,---,0.00,VWS V14.00,2013-04-26 19:44:00,
2013-04-26 15:45:00,62.3,40.1,30.29,SW,221,14.0,19.0,44,0.00,,---,0.00,VWS V14.00,2013-04-26 19:45:00,
2013-04-26 15:46:00,62.3,40.7,30.29,SSW,192,8.0,19.0,45,0.00,,---,0.00,VWS V14.00,2013-04-26 19:46:00,
2013-04-26 15:47:00,62.4,40.8,30.29,South,169,11.0,19.0,45,0.00,,---,0.00,VWS V14.00,2013-04-26 19:47:00,
2013-04-26 15:49:00,62.7,41.6,30.29,South,190,11.0,19.0,46,0.00,,---,0.00,VWS V14.00,2013-04-26 19:49:00,
2013-04-26 15:51:00,62.8,40.6,30.29,SSW,194,12.0,19.0,44,0.00,,---,0.00,VWS V14.00,2013-04-26 19:51:00,
2013-04-26 15:53:00,62.8,41.2,30.29,SSE,161,10.0,19.0,45,0.00,,---,0.00,VWS V14.00,2013-04-26 19:53:00,
2013-04-26 15:55:00,62.5,40.3,30.29,SSE,163,9.0,19.0,44,0.00,,---,0.00,VWS V14.00,2013-04-26 19:55:00,
2013-04-26 15:56:00,62.3,40.7,30.29,South,174,7.0,19.0,45,0.00,,---,0.00,VWS V14.00,2013-04-26 19:56:00,
2013-04-26 15:57:00,62.3,40.7,30.29,SSW,207,5.0,19.0,45,0.00,,---,0.00,VWS V14.00,2013-04-26 19:57:00,
2013-04-26 15:58:00,62.4,40.8,30.29,South,169,13.0,19.0,45,0.00,,---,0.00,VWS V14.00,2013-04-26 19:58:00,
2013-04-26 15:59:00,62.6,41.5,30.29,South,180,12.0,20.0,46,0.00,,---,0.00,VWS V14.00,2013-04-26 19:59:00,
2013-04-26 16:00:00,62.8,41.2,30.29,South,169,9.0,20.0,45,0.00,,---,0.00,VWS V14.00,2013-04-26 20:00:00,
2013-04-26 16:02:00,63.0,41.3,30.29,South,187,3.0,20.0,45,0.00,,---,0.00,VWS V14.00,2013-04-26 20:02:00,
2013-04-26 16:04:00,63.4,41.1,30.29,SSW,213,4.0,20.0,44,0.00,,---,0.00,VWS V14.00,2013-04-26 20:04:00,
2013-04-26 16:05:00,63.4,41.1,30.29,South,175,10.0,20.0,44,0.00,,---,0.00,VWS V14.00,2013-04-26 20:05:00,
2013-04-26 16:06:00,63.5,41.2,30.28,SSE,160,11.0,20.0,44,0.00,,---,0.00,VWS V14.00,2013-04-26 20:06:00,
2013-04-26 16:09:00,63.7,42.0,30.28,South,179,7.0,20.0,45,0.00,,---,0.00,VWS V14.00,2013-04-26 20:09:00,
2013-04-26 16:10:00,63.6,41.3,30.28,South,182,7.0,20.0,44,0.00,,---,0.00,VWS V14.00,2013-04-26 20:10:00,
2013-04-26 16:11:00,63.6,41.9,30.28,SSE,149,7.0,20.0,45,0.00,,---,0.00,VWS V14.00,2013-04-26 20:11:00,
2013-04-26 16:12:00,63.7,41.4,30.28,South,189,12.0,20.0,44,0.00,,---,0.00,VWS V14.00,2013-04-26 20:12:00,
2013-04-26 16:14:00,63.6,41.3,30.28,SSW,200,5.0,20.0,44,0.00,,---,0.00,VWS V14.00,2013-04-26 20:14:00,
2013-04-26 16:15:00,63.6,41.9,30.28,South,184,5.0,20.0,45,0.00,,---,0.00,VWS V14.00,2013-04-26 20:15:00,
2013-04-26 16:16:00,63.6,41.9,30.28,SSE,153,6.0,20.0,45,0.00,,---,0.00,VWS V14.00,2013-04-26 20:16:00,
2013-04-26 16:17:00,63.7,41.4,30.28,South,180,7.0,20.0,44,0.00,,---,0.00,VWS V14.00,2013-04-26 20:17:00,
2013-04-26 16:18:00,63.7,41.4,30.28,SSE,157,12.0,20.0,44,0.00,,---,0.00,VWS V14.00,2013-04-26 20:18:00,
2013-04-26 16:19:00,63.6,41.9,30.28,South,169,10.0,20.0,45,0.00,,---,0.00,VWS V14.00,2013-04-26 20:19:00,
2013-04-26 16:20:00,63.5,41.8,30.28,SSE,150,14.0,20.0,45,0.00,,---,0.00,VWS V14.00,2013-04-26 20:20:00,
2013-04-26 16:23:00,63.4,41.7,30.28,SSW,198,13.0,20.0,45,0.00,,---,0.00,VWS V14.00,2013-04-26 20:23:00,
2013-04-26 16:24:00,63.4,42.3,30.28,SSE,158,8.0,20.0,46,0.00,,---,0.00,VWS V14.00,2013-04-26 20:24:00,
2013-04-26 16:25:00,63.5,41.8,30.28,SSW,193,7.0,20.0,45,0.00,,---,0.00,VWS V14.00,2013-04-26 20:25:00,
2013-04-26 16:29:00,63.9,41.0,30.28,South,178,14.0,14.0,43,0.00,,---,0.00,VWS V14.00,2013-04-26 20:29:00,
2013-04-26 16:30:00,63.8,41.5,30.28,South,188,10.0,18.0,44,0.00,,---,0.00,VWS V14.00,2013-04-26 20:30:00,
2013-04-26 16:31:00,63.7,41.4,30.28,South,190,6.0,18.0,44,0.00,,---,0.00,VWS V14.00,2013-04-26 20:31:00,
2013-04-26 16:35:00,63.9,40.4,30.28,SW,232,2.0,18.0,42,0.00,,---,0.00,VWS V14.00,2013-04-26 20:35:00,
2013-04-26 16:36:00,64.0,40.5,30.28,SSW,213,6.0,18.0,42,0.00,,---,0.00,VWS V14.00,2013-04-26 20:36:00,
2013-04-26 16:38:00,64.5,41.5,30.28,SSW,211,4.0,18.0,43,0.00,,---,0.00,VWS V14.00,2013-04-26 20:38:00,
2013-04-26 16:40:00,64.9,41.9,30.27,SW,219,1.0,18.0,43,0.00,,---,0.00,VWS V14.00,2013-04-26 20:40:00,
2013-04-26 16:41:00,65.2,41.5,30.27,SSE,153,4.0,18.0,42,0.00,,---,0.00,VWS V14.00,2013-04-26 20:41:00,
2013-04-26 16:42:00,65.2,42.2,30.27,South,188,11.0,18.0,43,0.00,,---,0.00,VWS V14.00,2013-04-26 20:42:00,
2013-04-26 16:44:00,65.1,41.5,30.27,South,172,4.0,18.0,42,0.00,,---,0.00,VWS V14.00,2013-04-26 20:44:00,
2013-04-26 16:45:00,65.1,41.5,30.27,SSW,204,12.0,18.0,42,0.00,,---,0.00,VWS V14.00,2013-04-26 20:45:00,
2013-04-26 16:47:00,64.9,41.3,30.27,SSW,197,4.0,18.0,42,0.00,,---,0.00,VWS V14.00,2013-04-26 20:47:00,
2013-04-26 16:48:00,64.8,41.2,30.27,SSW,211,11.0,18.0,42,0.00,,---,0.00,VWS V14.00,2013-04-26 20:48:00,
2013-04-26 16:50:00,64.8,41.8,30.27,SSW,211,13.0,18.0,43,0.00,,---,0.00,VWS V14.00,2013-04-26 20:50:00,
2013-04-26 16:53:00,65.0,41.4,30.27,South,188,9.0,18.0,42,0.00,,---,0.00,VWS V14.00,2013-04-26 20:53:00,
2013-04-26 16:55:00,64.9,41.3,30.27,SSW,192,6.0,18.0,42,0.00,,---,0.00,VWS V14.00,2013-04-26 20:55:00,
2013-04-26 16:58:00,64.7,41.1,30.27,South,186,7.0,18.0,42,0.00,,---,0.00,VWS V14.00,2013-04-26 20:58:00,
2013-04-26 17:00:00,64.3,40.7,30.27,South,180,8.0,16.0,42,0.00,,---,0.00,VWS V14.00,2013-04-26 21:00:00,
2013-04-26 17:02:00,64.3,42.5,30.27,SSE,163,4.0,16.0,45,0.00,,---,0.00,VWS V14.00,2013-04-26 21:02:00,
2013-04-26 17:03:00,64.8,43.0,30.27,South,171,8.0,16.0,45,0.00,,---,0.00,VWS V14.00,2013-04-26 21:03:00,
2013-04-26 17:04:00,64.9,41.9,30.27,South,184,4.0,16.0,43,0.00,,---,0.00,VWS V14.00,2013-04-26 21:04:00,
2013-04-26 17:06:00,65.2,41.5,30.27,WNW,286,11.0,16.0,42,0.00,,---,0.00,VWS V14.00,2013-04-26 21:06:00,
2013-04-26 17:07:00,65.2,40.3,30.27,WSW,242,7.0,18.0,40,0.00,,---,0.00,VWS V14.00,2013-04-26 21:07:00,
2013-04-26 17:09:00,65.1,40.2,30.27,WSW,239,4.0,18.0,40,0.00,,---,0.00,VWS V14.00,2013-04-26 21:09:00,
2013-04-26 17:11:00,65.2,40.3,30.27,WSW,245,9.0,18.0,40,0.00,,---,0.00,VWS V14.00,2013-04-26 21:11:00,
2013-04-26 17:12:00,65.2,40.3,30.27,WSW,237,11.0,18.0,40,0.00,,---,0.00,VWS V14.00,2013-04-26 21:12:00,
2013-04-26 17:14:00,65.4,41.1,30.27,South,175,6.0,18.0,41,0.00,,---,0.00,VWS V14.00,2013-04-26 21:14:00,
2013-04-26 17:15:00,65.3,41.6,30.27,SSW,198,14.0,18.0,42,0.00,,---,0.00,VWS V14.00,2013-04-26 21:15:00,
2013-04-26 17:17:00,65.3,41.6,30.27,SSE,163,11.0,18.0,42,0.00,,---,0.00,VWS V14.00,2013-04-26 21:17:00,
2013-04-26 17:19:00,65.2,42.2,30.27,South,184,6.0,18.0,43,0.00,,---,0.00,VWS V14.00,2013-04-26 21:19:00,
2013-04-26 17:20:00,65.2,42.2,30.27,South,181,11.0,18.0,43,0.00,,---,0.00,VWS V14.00,2013-04-26 21:20:00,
2013-04-26 17:21:00,65.2,41.5,30.27,SSE,165,5.0,18.0,42,0.00,,---,0.00,VWS V14.00,2013-04-26 21:21:00,
2013-04-26 17:22:00,65.3,41.0,30.27,South,172,4.0,18.0,41,0.00,,---,0.00,VWS V14.00,2013-04-26 21:22:00,
2013-04-26 17:23:00,65.3,41.0,30.27,South,186,4.0,18.0,41,0.00,,---,0.00,VWS V14.00,2013-04-26 21:23:00,
2013-04-26 17:24:00,65.3,41.0,30.27,SSE,164,5.0,18.0,41,0.00,,---,0.00,VWS V14.00,2013-04-26 21:24:00,
2013-04-26 17:25:00,65.3,41.0,30.27,SW,218,11.0,18.0,41,0.00,,---,0.00,VWS V14.00,2013-04-26 21:25:00,
2013-04-26 17:27:00,65.3,41.0,30.27,SSW,201,11.0,18.0,41,0.00,,---,0.00,VWS V14.00,2013-04-26 21:27:00,
2013-04-26 17:28:00,65.2,41.5,30.27,South,186,6.0,18.0,42,0.00,,---,0.00,VWS V14.00,2013-04-26 21:28:00,
2013-04-26 17:30:00,65.2,40.9,30.27,SSE,166,9.0,9.0,41,0.00,,---,0.00,VWS V14.00,2013-04-26 21:30:00,
2013-04-26 17:32:00,65.2,40.9,30.27,SSW,211,3.0,11.0,41,0.00,,---,0.00,VWS V14.00,2013-04-26 21:32:00,
2013-04-26 17:34:00,65.3,42.2,30.27,SSW,193,4.0,13.0,43,0.00,,---,0.00,VWS V14.00,2013-04-26 21:34:00,
2013-04-26 17:35:00,65.4,41.7,30.27,South,183,4.0,13.0,42,0.00,,---,0.00,VWS V14.00,2013-04-26 21:35:00,
2013-04-26 17:36:00,65.4,41.7,30.27,SSW,210,3.0,13.0,42,0.00,,---,0.00,VWS V14.00,2013-04-26 21:36:00,
2013-04-26 17:37:00,65.4,41.1,30.27,South,169,10.0,13.0,41,0.00,,---,0.00,VWS V14.00,2013-04-26 21:37:00,
2013-04-26 17:39:00,65.3,41.0,30.26,SW,226,6.0,16.0,41,0.00,,---,0.00,VWS V14.00,2013-04-26 21:39:00,
2013-04-26 17:40:00,65.2,40.3,30.27,SW,214,3.0,16.0,40,0.00,,---,0.00,VWS V14.00,2013-04-26 21:40:00,
2013-04-26 17:41:00,65.1,40.8,30.27,South,175,9.0,16.0,41,0.00,,---,0.00,VWS V14.00,2013-04-26 21:41:00,
2013-04-26 17:42:00,65.1,42.1,30.27,SSE,167,10.0,16.0,43,0.00,,---,0.00,VWS V14.00,2013-04-26 21:42:00,
2013-04-26 17:44:00,65.0,42.0,30.26,SSE,163,12.0,16.0,43,0.00,,---,0.00,VWS V14.00,2013-04-26 21:44:00,
2013-04-26 17:46:00,64.7,41.1,30.26,SSW,198,6.0,18.0,42,0.00,,---,0.00,VWS V14.00,2013-04-26 21:46:00,
2013-04-26 17:47:00,64.6,42.2,30.26,SSW,198,4.0,18.0,44,0.00,,---,0.00,VWS V14.00,2013-04-26 21:47:00,
2013-04-26 17:49:00,64.8,41.8,30.26,WSW,252,14.0,18.0,43,0.00,,---,0.00,VWS V14.00,2013-04-26 21:49:00,
2013-04-26 17:52:00,64.9,40.7,30.26,SW,236,14.0,18.0,41,0.00,,---,0.00,VWS V14.00,2013-04-26 21:52:00,
2013-04-26 17:53:00,64.9,40.7,30.26,SSW,204,5.0,18.0,41,0.00,,---,0.00,VWS V14.00,2013-04-26 21:53:00,
2013-04-26 17:54:00,65.0,40.8,30.26,SSE,165,5.0,18.0,41,0.00,,---,0.00,VWS V14.00,2013-04-26 21:54:00,
2013-04-26 17:55:00,65.2,41.5,30.26,South,182,10.0,18.0,42,0.00,,---,0.00,VWS V14.00,2013-04-26 21:55:00,
2013-04-26 17:56:00,65.1,41.5,30.26,South,188,9.0,18.0,42,0.00,,---,0.00,VWS V14.00,2013-04-26 21:56:00,
2013-04-26 17:57:00,65.0,41.4,30.26,SSW,198,6.0,18.0,42,0.00,,---,0.00,VWS V14.00,2013-04-26 21:57:00,
2013-04-26 17:59:00,65.0,41.4,30.26,SSE,165,7.0,9.0,42,0.00,,---,0.00,VWS V14.00,2013-04-26 21:59:00,
2013-04-26 18:00:00,64.9,41.3,30.26,SW,219,8.0,11.0,42,0.00,,---,0.00,VWS V14.00,2013-04-26 22:00:00,
2013-04-26 18:01:00,64.8,41.2,30.26,SSW,194,2.0,11.0,42,0.00,,---,0.00,VWS V14.00,2013-04-26 22:01:00,
2013-04-26 18:03:00,64.9,41.9,30.26,South,169,2.0,11.0,43,0.00,,---,0.00,VWS V14.00,2013-04-26 22:03:00,
2013-04-26 18:04:00,65.0,42.0,30.26,SSW,194,5.0,11.0,43,0.00,,---,0.00,VWS V14.00,2013-04-26 22:04:00,
2013-04-26 18:06:00,65.1,41.5,30.26,SSE,165,5.0,11.0,42,0.00,,---,0.00,VWS V14.00,2013-04-26 22:06:00,
2013-04-26 18:07:00,65.1,41.5,30.26,SSE,155,4.0,11.0,42,0.00,,---,0.00,VWS V14.00,2013-04-26 22:07:00,
2013-04-26 18:10:00,65.2,41.5,30.26,South,172,5.0,11.0,42,0.00,,---,0.00,VWS V14.00,2013-04-26 22:10:00,
2013-04-26 18:11:00,65.3,41.6,30.26,SSE,167,10.0,15.0,42,0.00,,---,0.00,VWS V14.00,2013-04-26 22:11:00,
2013-04-26 18:12:00,65.3,41.6,30.26,South,184,10.0,15.0,42,0.00,,---,0.00,VWS V14.00,2013-04-26 22:12:00,
2013-04-26 18:15:00,64.8,41.2,30.26,South,186,14.0,15.0,42,0.00,,---,0.00,VWS V14.00,2013-04-26 22:15:00,
2013-04-26 18:17:00,64.7,41.7,30.26,SSW,197,7.0,17.0,43,0.00,,---,0.00,VWS V14.00,2013-04-26 22:17:00,
2013-04-26 18:18:00,64.6,41.0,30.26,South,184,12.0,17.0,42,0.00,,---,0.00,VWS V14.00,2013-04-26 22:18:00,
2013-04-26 18:21:00,64.4,40.8,30.26,SSE,158,11.0,17.0,42,0.00,,---,0.00,VWS V14.00,2013-04-26 22:21:00,
2013-04-26 18:22:00,64.3,40.7,30.26,SSW,194,3.0,17.0,42,0.00,,---,0.00,VWS V14.00,2013-04-26 22:22:00,
2013-04-26 18:23:00,64.3,41.3,30.26,South,173,4.0,17.0,43,0.00,,---,0.00,VWS V14.00,2013-04-26 22:23:00,
2013-04-26 18:24:00,64.2,41.3,30.26,South,173,6.0,17.0,43,0.00,,---,0.00,VWS V14.00,2013-04-26 22:24:00,
2013-04-26 18:27:00,64.6,41.6,30.26,SSW,192,7.0,17.0,43,0.00,,---,0.00,VWS V14.00,2013-04-26 22:27:00,
2013-04-26 18:28:00,64.7,41.1,30.26,South,177,9.0,17.0,42,0.00,,---,0.00,VWS V14.00,2013-04-26 22:28:00,
2013-04-26 18:30:00,64.7,40.5,30.26,WSW,247,12.0,13.0,41,0.00,,---,0.00,VWS V14.00,2013-04-26 22:30:00,
2013-04-26 18:33:00,64.7,40.5,30.26,South,191,1.0,14.0,41,0.00,,---,0.00,VWS V14.00,2013-04-26 22:33:00,
2013-04-26 18:34:00,64.7,41.1,30.26,SW,231,10.0,14.0,42,0.00,,---,0.00,VWS V14.00,2013-04-26 22:34:00,
2013-04-26 18:35:00,64.8,41.2,30.26,South,178,4.0,14.0,42,0.00,,---,0.00,VWS V14.00,2013-04-26 22:35:00,
2013-04-26 18:36:00,64.8,41.2,30.26,South,180,7.0,14.0,42,0.00,,---,0.00,VWS V14.00,2013-04-26 22:36:00,
2013-04-26 18:38:00,64.8,40.6,30.26,SSE,163,4.0,14.0,41,0.00,,---,0.00,VWS V14.00,2013-04-26 22:38:00,
2013-04-26 18:39:00,64.7,40.5,30.26,South,184,10.0,14.0,41,0.00,,---,0.00,VWS V14.00,2013-04-26 22:39:00,
2013-04-26 18:41:00,64.6,40.4,30.26,SSE,165,9.0,14.0,41,0.00,,---,0.00,VWS V14.00,2013-04-26 22:41:00,
2013-04-26 18:42:00,64.5,40.9,30.26,South,171,8.0,14.0,42,0.00,,---,0.00,VWS V14.00,2013-04-26 22:42:00,
2013-04-26 18:43:00,64.4,40.8,30.26,SSW,204,4.0,14.0,42,0.00,,---,0.00,VWS V14.00,2013-04-26 22:43:00,
2013-04-26 18:44:00,64.3,40.7,30.26,WSW,240,3.0,14.0,42,0.00,,---,0.00,VWS V14.00,2013-04-26 22:44:00,
2013-04-26 18:47:00,64.3,40.7,30.26,WSW,237,9.0,14.0,42,0.00,,---,0.00,VWS V14.00,2013-04-26 22:47:00,
2013-04-26 18:48:00,64.2,40.0,30.26,South,175,4.0,15.0,41,0.00,,---,0.00,VWS V14.00,2013-04-26 22:48:00,
2013-04-26 18:49:00,64.2,40.7,30.26,SE,142,4.0,15.0,42,0.00,,---,0.00,VWS V14.00,2013-04-26 22:49:00,
2013-04-26 18:50:00,64.1,40.6,30.26,SW,224,3.0,15.0,42,0.00,,---,0.00,VWS V14.00,2013-04-26 22:50:00,
2013-04-26 18:51:00,64.1,40.6,30.26,SW,224,2.0,15.0,42,0.00,,---,0.00,VWS V14.00,2013-04-26 22:51:00,
2013-04-26 18:53:00,64.1,40.6,30.26,SSW,210,3.0,15.0,42,0.00,,---,0.00,VWS V14.00,2013-04-26 22:53:00,
2013-04-26 18:54:00,64.2,40.7,30.26,South,190,4.0,15.0,42,0.00,,---,0.00,VWS V14.00,2013-04-26 22:54:00,
2013-04-26 18:56:00,64.1,41.2,30.26,SSE,164,14.0,16.0,43,0.00,,---,0.00,VWS V14.00,2013-04-26 22:56:00,
2013-04-26 18:57:00,64.1,41.2,30.26,South,171,17.0,17.0,43,0.00,,---,0.00,VWS V14.00,2013-04-26 22:57:00,
2013-04-26 18:58:00,63.7,40.8,30.25,SSW,205,10.0,10.0,43,0.00,,---,0.00,VWS V14.00,2013-04-26 22:58:00,
2013-04-26 18:59:00,63.6,40.7,30.25,SSW,205,10.0,13.0,43,0.00,,---,0.00,VWS V14.00,2013-04-26 22:59:00,
2013-04-26 19:02:00,63.5,40.6,30.25,South,186,9.0,14.0,43,0.00,,---,0.00,VWS V14.00,2013-04-26 23:02:00,
2013-04-26 19:04:00,63.4,41.1,30.26,South,188,9.0,14.0,44,0.00,,---,0.00,VWS V14.00,2013-04-26 23:04:00,
2013-04-26 19:05:00,63.5,41.2,30.26,South,175,7.0,14.0,44,0.00,,---,0.00,VWS V14.00,2013-04-26 23:05:00,
2013-04-26 19:09:00,63.5,41.2,30.26,South,175,4.0,14.0,44,0.00,,---,0.00,VWS V14.00,2013-04-26 23:09:00,
2013-04-26 19:10:00,63.4,41.1,30.25,South,182,5.0,14.0,44,0.00,,---,0.00,VWS V14.00,2013-04-26 23:10:00,
2013-04-26 19:11:00,63.4,41.1,30.25,South,180,2.0,14.0,44,0.00,,---,0.00,VWS V14.00,2013-04-26 23:11:00,
2013-04-26 19:13:00,63.5,41.2,30.26,South,186,4.0,16.0,44,0.00,,---,0.00,VWS V14.00,2013-04-26 23:13:00,
2013-04-26 19:15:00,63.5,40.6,30.26,SW,217,4.0,16.0,43,0.00,,---,0.00,VWS V14.00,2013-04-26 23:15:00,
2013-04-26 19:16:00,63.4,40.5,30.25,SSW,212,5.0,16.0,43,0.00,,---,0.00,VWS V14.00,2013-04-26 23:16:00,
2013-04-26 19:19:00,63.4,39.9,30.26,South,178,2.0,16.0,42,0.00,,---,0.00,VWS V14.00,2013-04-26 23:19:00,
2013-04-26 19:20:00,63.3,40.5,30.26,South,178,9.0,16.0,43,0.00,,---,0.00,VWS V14.00,2013-04-26 23:20:00,
2013-04-26 19:21:00,63.3,40.5,30.26,South,182,5.0,16.0,43,0.00,,---,0.00,VWS V14.00,2013-04-26 23:21:00,
2013-04-26 19:25:00,63.0,40.8,30.26,South,176,7.0,16.0,44,0.00,,---,0.00,VWS V14.00,2013-04-26 23:25:00,
2013-04-26 19:26:00,63.0,41.3,30.26,South,182,5.0,16.0,45,0.00,,---,0.00,VWS V14.00,2013-04-26 23:26:00,
2013-04-26 19:30:00,63.1,40.9,30.26,SSE,164,2.0,10.0,44,0.00,,---,0.00,VWS V14.00,2013-04-26 23:30:00,
2013-04-26 19:31:00,63.1,40.9,30.26,South,178,7.0,10.0,44,0.00,,---,0.00,VWS V14.00,2013-04-26 23:31:00,
2013-04-26 19:32:00,63.0,41.3,30.26,South,169,3.0,11.0,45,0.00,,---,0.00,VWS V14.00,2013-04-26 23:32:00,
2013-04-26 19:36:00,63.0,41.3,30.26,South,176,4.0,11.0,45,0.00,,---,0.00,VWS V14.00,2013-04-26 23:36:00,
2013-04-26 19:37:00,63.0,41.3,30.26,SSE,163,7.0,11.0,45,0.00,,---,0.00,VWS V14.00,2013-04-26 23:37:00,
2013-04-26 19:39:00,63.0,41.3,30.26,SW,216,3.0,11.0,45,0.00,,---,0.00,VWS V14.00,2013-04-26 23:39:00,
2013-04-26 19:41:00,62.9,41.3,30.26,SW,234,9.0,11.0,45,0.00,,---,0.00,VWS V14.00,2013-04-26 23:41:00,
2013-04-26 19:43:00,62.9,41.3,30.26,WSW,238,5.0,11.0,45,0.00,,---,0.00,VWS V14.00,2013-04-26 23:43:00,
2013-04-26 19:44:00,62.9,41.3,30.26,SSW,199,4.0,11.0,45,0.00,,---,0.00,VWS V14.00,2013-04-26 23:44:00,
2013-04-26 19:47:00,62.8,41.7,30.26,SSW,199,5.0,11.0,46,0.00,,---,0.00,VWS V14.00,2013-04-26 23:47:00,
2013-04-26 19:49:00,62.6,41.5,30.26,South,170,5.0,15.0,46,0.00,,---,0.00,VWS V14.00,2013-04-26 23:49:00,
2013-04-26 19:50:00,62.6,41.5,30.26,South,183,9.0,15.0,46,0.00,,---,0.00,VWS V14.00,2013-04-26 23:50:00,
2013-04-26 19:51:00,62.5,41.5,30.26,SSW,201,3.0,15.0,46,0.00,,---,0.00,VWS V14.00,2013-04-26 23:51:00,
2013-04-26 19:54:00,62.3,41.3,30.26,SSW,207,1.0,15.0,46,0.00,,---,0.00,VWS V14.00,2013-04-26 23:54:00,
2013-04-26 20:05:00,61.8,41.4,30.26,SW,228,2.0,15.0,47,0.00,,---,0.00,VWS V14.00,2013-04-27 00:05:00,
2013-04-26 20:06:00,61.8,41.4,30.26,SSW,196,5.0,15.0,47,0.00,,---,0.00,VWS V14.00,2013-04-27 00:06:00,
2013-04-26 20:07:00,61.8,41.4,30.26,SW,229,2.0,15.0,47,0.00,,---,0.00,VWS V14.00,2013-04-27 00:07:00,
2013-04-26 20:11:00,61.7,41.8,30.26,South,178,5.0,15.0,48,0.00,,---,0.00,VWS V14.00,2013-04-27 00:11:00,
2013-04-26 20:12:00,61.6,41.7,30.26,SSW,194,5.0,15.0,48,0.00,,---,0.00,VWS V14.00,2013-04-27 00:12:00,
2013-04-26 20:14:00,61.6,41.7,30.26,SW,228,2.0,15.0,48,0.00,,---,0.00,VWS V14.00,2013-04-27 00:14:00,
2013-04-26 20:15:00,61.5,41.7,30.26,South,188,7.0,15.0,48,0.00,,---,0.00,VWS V14.00,2013-04-27 00:15:00,
2013-04-26 20:16:00,61.5,41.7,30.26,SSW,202,2.0,15.0,48,0.00,,---,0.00,VWS V14.00,2013-04-27 00:16:00,
2013-04-26 20:18:00,61.4,42.1,30.27,South,178,4.0,15.0,49,0.00,,---,0.00,VWS V14.00,2013-04-27 00:18:00,
2013-04-26 20:19:00,61.4,42.1,30.27,South,182,3.0,15.0,49,0.00,,---,0.00,VWS V14.00,2013-04-27 00:19:00,
2013-04-26 20:21:00,61.3,42.0,30.27,SSW,203,4.0,15.0,49,0.00,,---,0.00,VWS V14.00,2013-04-27 00:21:00,
2013-04-26 20:23:00,61.2,41.4,30.27,SSW,197,6.0,15.0,48,0.00,,---,0.00,VWS V14.00,2013-04-27 00:23:00,
2013-04-26 20:24:00,61.1,41.8,30.27,SSW,199,7.0,15.0,49,0.00,,---,0.00,VWS V14.00,2013-04-27 00:24:00,
2013-04-26 20:25:00,61.1,41.8,30.27,SSW,208,10.0,15.0,49,0.00,,---,0.00,VWS V14.00,2013-04-27 00:25:00,
2013-04-26 20:26:00,60.9,41.6,30.27,South,189,4.0,15.0,49,0.00,,---,0.00,VWS V14.00,2013-04-27 00:26:00,
2013-04-26 20:28:00,60.9,42.2,30.27,South,182,3.0,15.0,50,0.00,,---,0.00,VWS V14.00,2013-04-27 00:28:00,
2013-04-26 20:30:00,60.8,42.6,30.27,South,182,3.0,6.0,51,0.00,,---,0.00,VWS V14.00,2013-04-27 00:30:00,
2013-04-26 20:31:00,60.8,42.1,30.27,SSW,197,7.0,9.0,50,0.00,,---,0.00,VWS V14.00,2013-04-27 00:31:00,
2013-04-26 20:32:00,60.7,42.0,30.27,SSE,166,4.0,9.0,50,0.00,,---,0.00,VWS V14.00,2013-04-27 00:32:00,
2013-04-26 20:33:00,60.7,42.0,30.27,South,178,4.0,9.0,50,0.00,,---,0.00,VWS V14.00,2013-04-27 00:33:00,
2013-04-26 20:34:00,60.6,41.9,30.26,SSE,160,4.0,9.0,50,0.00,,---,0.00,VWS V14.00,2013-04-27 00:34:00,
2013-04-26 20:36:00,60.5,41.8,30.26,SSW,198,4.0,10.0,50,0.00,,---,0.00,VWS V14.00,2013-04-27 00:36:00,
2013-04-26 20:37:00,60.4,41.7,30.27,South,170,4.0,10.0,50,0.00,,---,0.00,VWS V14.00,2013-04-27 00:37:00,
2013-04-26 20:39:00,60.3,41.6,30.27,South,172,6.0,10.0,50,0.00,,---,0.00,VWS V14.00,2013-04-27 00:39:00,
2013-04-26 20:43:00,60.2,42.0,30.27,South,182,4.0,10.0,51,0.00,,---,0.00,VWS V14.00,2013-04-27 00:43:00,
2013-04-26 20:44:00,60.2,41.5,30.27,SSW,200,3.0,10.0,50,0.00,,---,0.00,VWS V14.00,2013-04-27 00:44:00,
2013-04-26 20:45:00,60.2,41.5,30.27,SSW,200,2.0,10.0,50,0.00,,---,0.00,VWS V14.00,2013-04-27 00:45:00,
2013-04-26 20:48:00,60.0,41.8,30.27,South,172,2.0,10.0,51,0.00,,---,0.00,VWS V14.00,2013-04-27 00:48:00,
2013-04-26 20:49:00,60.0,41.8,30.27,South,172,3.0,10.0,51,0.00,,---,0.00,VWS V14.00,2013-04-27 00:49:00,
2013-04-26 20:50:00,59.9,41.8,30.27,South,174,0.0,10.0,51,0.00,,---,0.00,VWS V14.00,2013-04-27 00:50:00,
2013-04-26 20:51:00,59.9,42.2,30.27,South,173,2.0,10.0,52,0.00,,---,0.00,VWS V14.00,2013-04-27 00:51:00,
2013-04-26 20:55:00,59.7,41.6,30.27,South,188,5.0,10.0,51,0.00,,---,0.00,VWS V14.00,2013-04-27 00:55:00,
2013-04-26 20:56:00,59.6,41.5,30.27,South,179,4.0,10.0,51,0.00,,---,0.00,VWS V14.00,2013-04-27 00:56:00,
2013-04-26 20:57:00,59.6,42.0,30.27,South,176,2.0,10.0,52,0.00,,---,0.00,VWS V14.00,2013-04-27 00:57:00,
2013-04-26 20:59:00,59.6,42.0,30.26,South,178,4.0,4.0,52,0.00,,---,0.00,VWS V14.00,2013-04-27 00:59:00,
2013-04-26 21:00:00,59.5,42.4,30.26,South,178,2.0,9.0,53,0.00,,---,0.00,VWS V14.00,2013-04-27 01:00:00,
2013-04-26 21:02:00,59.5,41.9,30.27,South,182,5.0,9.0,52,0.00,,---,0.00,VWS V14.00,2013-04-27 01:02:00,
2013-04-26 21:04:00,59.3,41.7,30.27,South,178,3.0,9.0,52,0.00,,---,0.00,VWS V14.00,2013-04-27 01:04:00,
2013-04-26 21:05:00,59.3,42.2,30.26,South,171,4.0,9.0,53,0.00,,---,0.00,VWS V14.00,2013-04-27 01:05:00,
2013-04-26 21:06:00,59.2,42.1,30.27,South,171,4.0,9.0,53,0.00,,---,0.00,VWS V14.00,2013-04-27 01:06:00,
2013-04-26 21:08:00,59.0,41.9,30.27,South,171,5.0,9.0,53,0.00,,---,0.00,VWS V14.00,2013-04-27 01:08:00,
2013-04-26 21:09:00,59.0,41.9,30.27,South,171,2.0,9.0,53,0.00,,---,0.00,VWS V14.00,2013-04-27 01:09:00,
2013-04-26 21:10:00,59.0,41.9,30.27,South,171,4.0,9.0,53,0.00,,---,0.00,VWS V14.00,2013-04-27 01:10:00,
2013-04-26 21:11:00,59.0,41.9,30.27,SSE,167,6.0,9.0,53,0.00,,---,0.00,VWS V14.00,2013-04-27 01:11:00,
2013-04-26 21:15:00,59.0,41.9,30.27,South,179,4.0,10.0,53,0.00,,---,0.00,VWS V14.00,2013-04-27 01:15:00,
2013-04-26 21:16:00,59.0,41.9,30.27,South,171,4.0,10.0,53,0.00,,---,0.00,VWS V14.00,2013-04-27 01:16:00,
2013-04-26 21:17:00,59.0,41.9,30.27,South,171,5.0,10.0,53,0.00,,---,0.00,VWS V14.00,2013-04-27 01:17:00,
2013-04-26 21:18:00,59.0,41.9,30.27,South,174,4.0,10.0,53,0.00,,---,0.00,VWS V14.00,2013-04-27 01:18:00,
2013-04-26 21:19:00,59.0,41.9,30.27,South,172,6.0,10.0,53,0.00,,---,0.00,VWS V14.00,2013-04-27 01:19:00,
2013-04-26 21:20:00,59.0,41.9,30.27,South,177,2.0,10.0,53,0.00,,---,0.00,VWS V14.00,2013-04-27 01:20:00,
2013-04-26 21:22:00,59.0,42.4,30.27,South,178,2.0,10.0,54,0.00,,---,0.00,VWS V14.00,2013-04-27 01:22:00,
2013-04-26 21:23:00,59.0,42.4,30.27,South,176,2.0,10.0,54,0.00,,---,0.00,VWS V14.00,2013-04-27 01:23:00,
2013-04-26 21:24:00,59.0,42.4,30.27,South,176,2.0,10.0,54,0.00,,---,0.00,VWS V14.00,2013-04-27 01:24:00,
2013-04-26 21:27:00,58.8,42.2,30.27,South,190,6.0,10.0,54,0.00,,---,0.00,VWS V14.00,2013-04-27 01:27:00,
2013-04-26 21:28:00,58.7,42.1,30.27,South,184,3.0,4.0,54,0.00,,---,0.00,VWS V14.00,2013-04-27 01:28:00,
2013-04-26 21:30:00,58.7,42.1,30.27,South,175,4.0,6.0,54,0.00,,---,0.00,VWS V14.00,2013-04-27 01:30:00,
2013-04-26 21:32:00,58.6,42.0,30.27,South,181,7.0,7.0,54,0.00,,---,0.00,VWS V14.00,2013-04-27 01:32:00,
2013-04-26 21:34:00,58.5,41.9,30.27,South,184,5.0,7.0,54,0.00,,---,0.00,VWS V14.00,2013-04-27 01:34:00,
2013-04-26 21:36:00,58.3,42.2,30.27,South,184,4.0,7.0,55,0.00,,---,0.00,VWS V14.00,2013-04-27 01:36:00,
2013-04-26 21:39:00,58.3,42.2,30.27,South,172,2.0,7.0,55,0.00,,---,0.00,VWS V14.00,2013-04-27 01:39:00,
2013-04-26 21:40:00,58.2,42.1,30.27,South,173,3.0,7.0,55,0.00,,---,0.00,VWS V14.00,2013-04-27 01:40:00,
2013-04-26 21:41:00,58.2,42.1,30.27,South,172,2.0,7.0,55,0.00,,---,0.00,VWS V14.00,2013-04-27 01:41:00,
2013-04-26 21:43:00,58.1,42.0,30.28,South,171,3.0,7.0,55,0.00,,---,0.00,VWS V14.00,2013-04-27 01:43:00,
2013-04-26 21:46:00,58.1,42.0,30.27,South,171,0.0,7.0,55,0.00,,---,0.00,VWS V14.00,2013-04-27 01:46:00,
2013-04-26 21:47:00,58.0,41.9,30.27,South,171,2.0,7.0,55,0.00,,---,0.00,VWS V14.00,2013-04-27 01:47:00,
2013-04-26 21:51:00,57.7,42.1,30.27,South,176,3.0,7.0,56,0.00,,---,0.00,VWS V14.00,2013-04-27 01:51:00,
2013-04-26 21:52:00,57.7,42.1,30.27,South,176,4.0,7.0,56,0.00,,---,0.00,VWS V14.00,2013-04-27 01:52:00,
2013-04-26 21:53:00,57.7,42.6,30.27,South,175,2.0,7.0,57,0.00,,---,0.00,VWS V14.00,2013-04-27 01:53:00,
2013-04-26 21:57:00,57.5,41.9,30.27,South,172,2.0,7.0,56,0.00,,---,0.00,VWS V14.00,2013-04-27 01:57:00,
2013-04-26 21:58:00,57.4,42.3,30.27,South,172,3.0,7.0,57,0.00,,---,0.00,VWS V14.00,2013-04-27 01:58:00,
2013-04-26 21:59:00,57.3,42.7,30.27,South,171,2.0,4.0,58,0.00,,---,0.00,VWS V14.00,2013-04-27 01:59:00,
2013-04-26 22:02:00,57.2,42.1,30.27,South,178,4.0,5.0,57,0.00,,---,0.00,VWS V14.00,2013-04-27 02:02:00,
2013-04-26 22:03:00,57.2,42.1,30.27,South,182,0.0,5.0,57,0.00,,---,0.00,VWS V14.00,2013-04-27 02:03:00,
2013-04-26 22:05:00,57.1,42.0,30.27,South,180,4.0,5.0,57,0.00,,---,0.00,VWS V14.00,2013-04-27 02:05:00,
2013-04-26 22:07:00,57.0,42.4,30.27,SSE,161,3.0,6.0,58,0.00,,---,0.00,VWS V14.00,2013-04-27 02:07:00,
2013-04-26 22:09:00,56.9,41.8,30.28,South,178,3.0,9.0,57,0.00,,---,0.00,VWS V14.00,2013-04-27 02:09:00,
2013-04-26 22:10:00,56.9,41.8,30.28,South,176,4.0,9.0,57,0.00,,---,0.00,VWS V14.00,2013-04-27 02:10:00,
2013-04-26 22:13:00,56.9,41.8,30.28,South,176,3.0,9.0,57,0.00,,---,0.00,VWS V14.00,2013-04-27 02:13:00,
2013-04-26 22:14:00,56.8,42.2,30.28,South,179,2.0,9.0,58,0.00,,---,0.00,VWS V14.00,2013-04-27 02:14:00,
2013-04-26 22:15:00,56.8,42.2,30.28,South,188,6.0,9.0,58,0.00,,---,0.00,VWS V14.00,2013-04-27 02:15:00,
2013-04-26 22:16:00,56.8,42.2,30.27,South,175,1.0,9.0,58,0.00,,---,0.00,VWS V14.00,2013-04-27 02:16:00,
2013-04-26 22:20:00,56.7,42.1,30.27,South,172,0.0,9.0,58,0.00,,---,0.00,VWS V14.00,2013-04-27 02:20:00,
2013-04-26 22:21:00,56.7,42.1,30.27,South,172,4.0,9.0,58,0.00,,---,0.00,VWS V14.00,2013-04-27 02:21:00,
2013-04-26 22:22:00,56.7,42.1,30.27,South,183,4.0,9.0,58,0.00,,---,0.00,VWS V14.00,2013-04-27 02:22:00,
2013-04-26 22:26:00,56.6,42.0,30.27,South,176,3.0,9.0,58,0.00,,---,0.00,VWS V14.00,2013-04-27 02:26:00,
2013-04-26 22:27:00,56.6,42.0,30.27,South,176,3.0,9.0,58,0.00,,---,0.00,VWS V14.00,2013-04-27 02:27:00,
2013-04-26 22:28:00,56.6,42.0,30.27,South,176,2.0,9.0,58,0.00,,---,0.00,VWS V14.00,2013-04-27 02:28:00,
2013-04-26 22:31:00,56.5,41.9,30.28,South,174,6.0,6.0,58,0.00,,---,0.00,VWS V14.00,2013-04-27 02:31:00,
2013-04-26 22:32:00,56.6,42.0,30.27,South,175,4.0,7.0,58,0.00,,---,0.00,VWS V14.00,2013-04-27 02:32:00,
2013-04-26 22:33:00,56.5,41.9,30.28,South,175,2.0,7.0,58,0.00,,---,0.00,VWS V14.00,2013-04-27 02:33:00,
2013-04-26 22:34:00,56.5,41.9,30.28,SSE,167,5.0,7.0,58,0.00,,---,0.00,VWS V14.00,2013-04-27 02:34:00,
2013-04-26 22:36:00,56.4,42.3,30.28,SSE,168,2.0,7.0,59,0.00,,---,0.00,VWS V14.00,2013-04-27 02:36:00,
2013-04-26 22:38:00,56.4,42.3,30.28,South,172,4.0,7.0,59,0.00,,---,0.00,VWS V14.00,2013-04-27 02:38:00,
2013-04-26 22:39:00,56.4,42.3,30.28,SSE,167,3.0,7.0,59,0.00,,---,0.00,VWS V14.00,2013-04-27 02:39:00,
2013-04-26 22:40:00,56.4,42.3,30.28,SSE,168,4.0,7.0,59,0.00,,---,0.00,VWS V14.00,2013-04-27 02:40:00,
2013-04-26 22:41:00,56.4,42.3,30.28,South,190,4.0,8.0,59,0.00,,---,0.00,VWS V14.00,2013-04-27 02:41:00,
2013-04-26 22:45:00,56.3,43.0,30.28,SSW,195,3.0,8.0,61,0.00,,---,0.00,VWS V14.00,2013-04-27 02:45:00,
2013-04-26 22:46:00,56.2,43.0,30.28,South,171,5.0,8.0,61,0.00,,---,0.00,VWS V14.00,2013-04-27 02:46:00,
2013-04-26 22:47:00,56.2,42.1,30.28,South,173,3.0,8.0,59,0.00,,---,0.00,VWS V14.00,2013-04-27 02:47:00,
2013-04-26 22:49:00,56.2,42.1,30.28,SSE,165,4.0,8.0,59,0.00,,---,0.00,VWS V14.00,2013-04-27 02:49:00,
2013-04-26 22:51:00,56.2,42.1,30.28,South,178,2.0,8.0,59,0.00,,---,0.00,VWS V14.00,2013-04-27 02:51:00,
2013-04-26 22:52:00,56.2,42.1,30.28,South,177,3.0,8.0,59,0.00,,---,0.00,VWS V14.00,2013-04-27 02:52:00,
2013-04-26 22:53:00,56.2,42.1,30.28,South,173,0.0,8.0,59,0.00,,---,0.00,VWS V14.00,2013-04-27 02:53:00,
2013-04-26 22:54:00,56.2,42.1,30.28,South,173,3.0,8.0,59,0.00,,---,0.00,VWS V14.00,2013-04-27 02:54:00,
2013-04-26 22:57:00,56.1,42.0,30.28,SSE,168,0.0,8.0,59,0.00,,---,0.00,VWS V14.00,2013-04-27 02:57:00,
2013-04-26 22:59:00,56.1,42.0,30.28,South,169,2.0,4.0,59,0.00,,---,0.00,VWS V14.00,2013-04-27 02:59:00,
2013-04-26 23:00:00,56.1,42.0,30.28,South,169,1.0,4.0,59,0.00,,---,0.00,VWS V14.00,2013-04-27 03:00:00,
2013-04-26 23:03:00,56.0,41.9,30.28,South,190,3.0,6.0,59,0.00,,---,0.00,VWS V14.00,2013-04-27 03:03:00,
2013-04-26 23:04:00,56.0,41.9,30.28,South,187,2.0,6.0,59,0.00,,---,0.00,VWS V14.00,2013-04-27 03:04:00,
2013-04-26 23:05:00,56.0,41.9,30.28,South,188,1.0,6.0,59,0.00,,---,0.00,VWS V14.00,2013-04-27 03:05:00,
2013-04-26 23:06:00,56.0,41.9,30.28,South,188,1.0,6.0,59,0.00,,---,0.00,VWS V14.00,2013-04-27 03:06:00,
2013-04-26 23:09:00,55.9,41.8,30.28,South,184,3.0,6.0,59,0.00,,---,0.00,VWS V14.00,2013-04-27 03:09:00,
2013-04-26 23:10:00,55.9,41.8,30.28,South,184,0.0,6.0,59,0.00,,---,0.00,VWS V14.00,2013-04-27 03:10:00,
2013-04-26 23:11:00,55.9,41.8,30.28,South,184,0.0,6.0,59,0.00,,---,0.00,VWS V14.00,2013-04-27 03:11:00,
2013-04-26 23:12:00,55.8,41.7,30.28,South,184,0.0,6.0,59,0.00,,---,0.00,VWS V14.00,2013-04-27 03:12:00,
2013-04-26 23:15:00,55.7,41.6,30.27,South,184,1.0,6.0,59,0.00,,---,0.00,VWS V14.00,2013-04-27 03:15:00,
2013-04-26 23:16:00,55.7,41.6,30.27,South,186,4.0,6.0,59,0.00,,---,0.00,VWS V14.00,2013-04-27 03:16:00,
2013-04-26 23:20:00,55.6,41.5,30.27,South,186,4.0,6.0,59,0.00,,---,0.00,VWS V14.00,2013-04-27 03:20:00,
2013-04-26 23:21:00,55.5,41.9,30.28,South,186,0.0,6.0,60,0.00,,---,0.00,VWS V14.00,2013-04-27 03:21:00,
2013-04-26 23:23:00,55.4,41.3,30.28,South,186,0.0,6.0,59,0.00,,---,0.00,VWS V14.00,2013-04-27 03:23:00,
2013-04-26 23:26:00,55.4,41.3,30.27,South,186,0.0,6.0,59,0.00,,---,0.00,VWS V14.00,2013-04-27 03:26:00,
2013-04-26 23:27:00,55.4,41.8,30.28,South,186,1.0,6.0,60,0.00,,---,0.00,VWS V14.00,2013-04-27 03:27:00,
2013-04-26 23:28:00,55.4,41.8,30.28,South,186,0.0,6.0,60,0.00,,---,0.00,VWS V14.00,2013-04-27 03:28:00,
2013-04-26 23:29:00,55.4,41.8,30.27,South,176,1.0,4.0,60,0.00,,---,0.00,VWS V14.00,2013-04-27 03:29:00,
2013-04-26 23:31:00,55.4,41.8,30.27,SSW,198,5.0,9.0,60,0.00,,---,0.00,VWS V14.00,2013-04-27 03:31:00,
2013-04-26 23:33:00,55.4,41.8,30.27,South,178,2.0,9.0,60,0.00,,---,0.00,VWS V14.00,2013-04-27 03:33:00,
2013-04-26 23:34:00,55.4,41.8,30.27,South,178,4.0,9.0,60,0.00,,---,0.00,VWS V14.00,2013-04-27 03:34:00,
2013-04-26 23:35:00,55.4,41.8,30.28,South,178,0.0,9.0,60,0.00,,---,0.00,VWS V14.00,2013-04-27 03:35:00,
2013-04-26 23:37:00,55.3,41.7,30.27,South,178,3.0,9.0,60,0.00,,---,0.00,VWS V14.00,2013-04-27 03:37:00,
2013-04-26 23:39:00,55.2,42.0,30.28,South,178,3.0,9.0,61,0.00,,---,0.00,VWS V14.00,2013-04-27 03:39:00,
2013-04-26 23:40:00,55.1,41.9,30.28,South,178,2.0,9.0,61,0.00,,---,0.00,VWS V14.00,2013-04-27 03:40:00,
2013-04-26 23:41:00,55.1,41.9,30.28,South,178,2.0,9.0,61,0.00,,---,0.00,VWS V14.00,2013-04-27 03:41:00,
2013-04-26 23:43:00,55.0,41.8,30.28,South,178,2.0,9.0,61,0.00,,---,0.00,VWS V14.00,2013-04-27 03:43:00,
2013-04-26 23:45:00,55.0,41.8,30.28,South,178,2.0,9.0,61,0.00,,---,0.00,VWS V14.00,2013-04-27 03:45:00,
2013-04-26 23:46:00,54.9,41.7,30.28,South,178,4.0,9.0,61,0.00,,---,0.00,VWS V14.00,2013-04-27 03:46:00,
2013-04-26 23:47:00,54.9,41.7,30.28,South,178,2.0,9.0,61,0.00,,---,0.00,VWS V14.00,2013-04-27 03:47:00,
2013-04-26 23:49:00,54.9,41.7,30.28,South,179,2.0,9.0,61,0.00,,---,0.00,VWS V14.00,2013-04-27 03:49:00,
2013-04-26 23:51:00,54.8,41.6,30.28,South,179,3.0,9.0,61,0.00,,---,0.00,VWS V14.00,2013-04-27 03:51:00,
2013-04-26 23:54:00,54.7,41.5,30.28,South,179,1.0,9.0,61,0.00,,---,0.00,VWS V14.00,2013-04-27 03:54:00,
2013-04-26 23:56:00,54.6,41.9,30.28,South,178,3.0,9.0,62,0.00,,---,0.00,VWS V14.00,2013-04-27 03:56:00,
2013-04-26 23:57:00,54.6,41.9,30.28,South,178,3.0,9.0,62,0.00,,---,0.00,VWS V14.00,2013-04-27 03:57:00,
2013-04-26 23:59:00,54.6,41.9,30.28,South,175,3.0,5.0,62,0.00,,---,0.00,VWS V14.00,2013-04-27 03:59:00,